Observation data for Fort Chadbourne on 02/14/2020      Previous  Date  Next       Current Mesonet Observations  Soil Data  Daily Summary Page  Observations in Plain Language
KCH1 140600Z 05004KT M02/M02 A3034 RMK A01 T10181022  RH  098%=      5-min Rain = 0
KCH1 140601Z 05003KT M02/M02 A3034 RMK A01 T10191022  RH  098%=      5-min Rain = 0
KCH1 140602Z 05003KT M02/M02 A3034 RMK A01 T10191022  RH  097%=      5-min Rain = 0
KCH1 140603Z 06003KT M02/M02 A3034 RMK A01 T10191022  RH  097%=      5-min Rain = 0
KCH1 140604Z 05003KT M02/M02 A3034 RMK A01 T10191023  RH  097%=      5-min Rain = 0
KCH1 140605Z 05003KT M02/M02 A3034 RMK A01 T10191022  RH  098%=      5-min Rain = 0
KCH1 140606Z 05003KT M02/M02 A3034 RMK A01 T10191022  RH  098%=      5-min Rain = 0
KCH1 140607Z 05003KT M02/M02 A3034 RMK A01 T10191022  RH  098%=      5-min Rain = 0
KCH1 140608Z 05003KT M02/M02 A3034 RMK A01 T10191022  RH  098%=      5-min Rain = 0
KCH1 140609Z 04003KT M02/M02 A3034 RMK A01 T10191023  RH  098%=      5-min Rain = 0
KCH1 140610Z 04003KT M02/M02 A3034 RMK A01 T10201023  RH  098%=      5-min Rain = 0
KCH1 140611Z 04003KT M02/M02 A3034 RMK A01 T10201023  RH  097%=      5-min Rain = 0
KCH1 140612Z 05003KT M02/M02 A3034 RMK A01 T10201024  RH  098%=      5-min Rain = 0
KCH1 140613Z 05002KT M02/M02 A3034 RMK A01 T10201023  RH  098%=      5-min Rain = 0
KCH1 140614Z 05002KT M02/M02 A3034 RMK A01 T10201023  RH  098%=      5-min Rain = 0
KCH1 140615Z 06002KT M02/M02 A3034 RMK A01 T10201023  RH  098%=      5-min Rain = 0
KCH1 140616Z 06002KT M02/M02 A3034 RMK A01 T10201023  RH  098%=      5-min Rain = 0
KCH1 140617Z 05002KT M02/M02 A3034 RMK A01 T10201023  RH  098%=      5-min Rain = 0
KCH1 140618Z 04002KT M02/M02 A3034 RMK A01 T10201024  RH  098%=      5-min Rain = 0
KCH1 140619Z 03002KT M02/M02 A3034 RMK A01 T10201023  RH  098%=      5-min Rain = 0
KCH1 140620Z 04001KT M02/M02 A3034 RMK A01 T10201023  RH  098%=      5-min Rain = 0
KCH1 140621Z 03001KT M02/M02 A3034 RMK A01 T10201023  RH  098%=      5-min Rain = 0
KCH1 140622Z 03001KT M02/M02 A3034 RMK A01 T10201022  RH  098%=      5-min Rain = 0
KCH1 140623Z 03001KT M02/M02 A3034 RMK A01 T10201023  RH  098%=      5-min Rain = 0
KCH1 140624Z 03000KT M02/M02 A3034 RMK A01 T10201023  RH  098%=      5-min Rain = 0
KCH1 140625Z 07000KT M02/M03 A3034 RMK A01 T10211025  RH  098%=      5-min Rain = 0
KCH1 140626Z 00000KT M02/M03 A3034 RMK A01 T10221026  RH  098%=      5-min Rain = 0
KCH1 140627Z 13000KT M02/M03 A3034 RMK A01 T10231026  RH  098%=      5-min Rain = 0
KCH1 140628Z 11000KT M02/M03 A3034 RMK A01 T10231027  RH  098%=      5-min Rain = 0
KCH1 140629Z 08000KT M02/M03 A3034 RMK A01 T10231026  RH  098%=      5-min Rain = 0
KCH1 140630Z 10001KT M02/M03 A3034 RMK A01 T10231025  RH  098%=      5-min Rain = 0
KCH1 140631Z 10001KT M02/M03 A3034 RMK A01 T10231025  RH  098%=      5-min Rain = 0
KCH1 140632Z 12001KT M02/M03 A3034 RMK A01 T10231025  RH  098%=      5-min Rain = 0
KCH1 140633Z 12001KT M02/M03 A3034 RMK A01 T10231026  RH  098%=      5-min Rain = 0
KCH1 140634Z 13001KT M02/M03 A3034 RMK A01 T10231026  RH  098%=      5-min Rain = 0
KCH1 140635Z 14001KT M02/M03 A3034 RMK A01 T10241026  RH  098%=      5-min Rain = 0
KCH1 140636Z 14002KT M02/M03 A3034 RMK A01 T10241027  RH  098%=      5-min Rain = 0
KCH1 140637Z 14002KT M02/M03 A3034 RMK A01 T10241027  RH  098%=      5-min Rain = 0
KCH1 140638Z 14002KT M03/M03 A3034 RMK A01 T10251027  RH  098%=      5-min Rain = 0
KCH1 140639Z 14002KT M03/M03 A3034 RMK A01 T10251028  RH  098%=      5-min Rain = 0
KCH1 140640Z 14002KT M03/M03 A3034 RMK A01 T10251028  RH  098%=      5-min Rain = 0
KCH1 140641Z 13002KT M03/M03 A3034 RMK A01 T10251028  RH  098%=      5-min Rain = 0
KCH1 140642Z 13002KT M03/M03 A3034 RMK A01 T10251027  RH  098%=      5-min Rain = 0
KCH1 140643Z 12002KT M03/M03 A3034 RMK A01 T10251027  RH  099%=      5-min Rain = 0
KCH1 140644Z 11003KT M02/M03 A3034 RMK A01 T10241026  RH  099%=      5-min Rain = 0
KCH1 140645Z 11003KT M02/M03 A3034 RMK A01 T10241026  RH  099%=      5-min Rain = 0
KCH1 140646Z 11003KT M02/M03 A3034 RMK A01 T10231025  RH  099%=      5-min Rain = 0
KCH1 140647Z 11003KT M02/M02 A3035 RMK A01 T10231024  RH  099%=      5-min Rain = 0
KCH1 140648Z 11003KT M02/M02 A3035 RMK A01 T10221023  RH  099%=      5-min Rain = 0
KCH1 140649Z 11003KT M02/M02 A3035 RMK A01 T10211023  RH  099%=      5-min Rain = 0
KCH1 140650Z 11003KT M02/M02 A3035 RMK A01 T10211022  RH  099%=      5-min Rain = 0
KCH1 140651Z 11003KT M02/M02 A3035 RMK A01 T10211022  RH  099%=      5-min Rain = 0
KCH1 140652Z 11003KT M02/M02 A3035 RMK A01 T10211023  RH  099%=      5-min Rain = 0
KCH1 140653Z 11003KT M02/M02 A3035 RMK A01 T10211023  RH  098%=      5-min Rain = 0
KCH1 140654Z 12003KT M02/M02 A3035 RMK A01 T10211024  RH  098%=      5-min Rain = 0
KCH1 140655Z 13004KT M02/M02 A3035 RMK A01 T10211024  RH  098%=      5-min Rain = 0
KCH1 140656Z 13003KT M02/M02 A3035 RMK A01 T10211024  RH  098%=      5-min Rain = 0
KCH1 140657Z 15002KT M02/M02 A3035 RMK A01 T10201023  RH  098%=      5-min Rain = 0
KCH1 140658Z 15002KT M02/M02 A3035 RMK A01 T10201023  RH  097%=      5-min Rain = 0
KCH1 140659Z 14002KT M02/M02 A3035 RMK A01 T10191023  RH  097%=      5-min Rain = 0
KCH1 140700Z 14002KT M02/M02 A3035 RMK A01 T10191023  RH  097%=      5-min Rain = 0
KCH1 140701Z 13002KT M02/M02 A3035 RMK A01 T10191023  RH  097%=      5-min Rain = 0
KCH1 140702Z 13002KT M02/M02 A3035 RMK A01 T10191023  RH  097%=      5-min Rain = 0
KCH1 140703Z 13003KT M02/M02 A3035 RMK A01 T10191023  RH  097%=      5-min Rain = 0
KCH1 140704Z 13003KT M02/M02 A3035 RMK A01 T10191023  RH  097%=      5-min Rain = 0
KCH1 140705Z 13003KT M02/M02 A3035 RMK A01 T10191023  RH  097%=      5-min Rain = 0
KCH1 140706Z 13003KT M02/M02 A3035 RMK A01 T10181023  RH  097%=      5-min Rain = 0
KCH1 140707Z 13003KT M02/M02 A3035 RMK A01 T10181023  RH  097%=      5-min Rain = 0
KCH1 140708Z 13003KT M02/M02 A3035 RMK A01 T10191023  RH  097%=      5-min Rain = 0
KCH1 140709Z 13003KT M02/M02 A3035 RMK A01 T10191024  RH  097%=      5-min Rain = 0
KCH1 140710Z 12002KT M02/M02 A3035 RMK A01 T10191024  RH  097%=      5-min Rain = 0
KCH1 140711Z 12002KT M02/M02 A3035 RMK A01 T10201024  RH  097%=      5-min Rain = 0
KCH1 140712Z 11002KT M02/M02 A3035 RMK A01 T10191024  RH  097%=      5-min Rain = 0
KCH1 140713Z 11002KT M02/M02 A3035 RMK A01 T10191024  RH  097%=      5-min Rain = 0
KCH1 140714Z 11002KT M02/M02 A3035 RMK A01 T10191023  RH  097%=      5-min Rain = 0
KCH1 140715Z 11002KT M02/M02 A3035 RMK A01 T10181022  RH  097%=      5-min Rain = 0
KCH1 140716Z 10002KT M02/M02 A3035 RMK A01 T10181023  RH  097%=      5-min Rain = 0
KCH1 140717Z 10002KT M02/M02 A3035 RMK A01 T10181022  RH  097%=      5-min Rain = 0
KCH1 140718Z 11002KT M02/M02 A3035 RMK A01 T10181022  RH  097%=      5-min Rain = 0
KCH1 140719Z 11002KT M02/M02 A3035 RMK A01 T10171023  RH  096%=      5-min Rain = 0
KCH1 140720Z 11002KT M02/M02 A3035 RMK A01 T10171023  RH  096%=      5-min Rain = 0
KCH1 140721Z 11002KT M02/M02 A3035 RMK A01 T10171023  RH  096%=      5-min Rain = 0
KCH1 140722Z 11002KT M02/M02 A3035 RMK A01 T10181023  RH  096%=      5-min Rain = 0
KCH1 140723Z 12002KT M02/M02 A3035 RMK A01 T10181024  RH  096%=      5-min Rain = 0
KCH1 140724Z 13003KT M02/M02 A3035 RMK A01 T10181024  RH  096%=      5-min Rain = 0
KCH1 140725Z 13003KT M02/M03 A3035 RMK A01 T10191025  RH  096%=      5-min Rain = 0
KCH1 140726Z 13003KT M02/M03 A3035 RMK A01 T10191026  RH  096%=      5-min Rain = 0
KCH1 140727Z 13003KT M02/M03 A3035 RMK A01 T10201026  RH  096%=      5-min Rain = 0
KCH1 140728Z 12002KT M02/M03 A3035 RMK A01 T10201026  RH  096%=      5-min Rain = 0
KCH1 140729Z 11002KT M02/M03 A3035 RMK A01 T10201026  RH  096%=      5-min Rain = 0
KCH1 140730Z 10002KT M02/M03 A3035 RMK A01 T10211027  RH  096%=      5-min Rain = 0
KCH1 140731Z 09002KT M02/M03 A3035 RMK A01 T10221027  RH  096%=      5-min Rain = 0
KCH1 140732Z 09002KT M02/M03 A3035 RMK A01 T10211026  RH  096%=      5-min Rain = 0
KCH1 140733Z 09002KT M02/M03 A3035 RMK A01 T10201026  RH  096%=      5-min Rain = 0
KCH1 140734Z 10002KT M02/M02 A3035 RMK A01 T10201024  RH  096%=      5-min Rain = 0
KCH1 140735Z 10002KT M02/M02 A3035 RMK A01 T10201024  RH  096%=      5-min Rain = 0
KCH1 140736Z 10002KT M02/M02 A3035 RMK A01 T10191024  RH  096%=      5-min Rain = 0
KCH1 140737Z 11002KT M02/M02 A3035 RMK A01 T10191024  RH  096%=      5-min Rain = 0
KCH1 140738Z 11002KT M02/M02 A3035 RMK A01 T10191024  RH  096%=      5-min Rain = 0
KCH1 140739Z 11002KT M02/M02 A3035 RMK A01 T10181023  RH  096%=      5-min Rain = 0
KCH1 140740Z 11002KT M02/M02 A3035 RMK A01 T10181023  RH  096%=      5-min Rain = 0
KCH1 140741Z 11002KT M02/M02 A3035 RMK A01 T10181023  RH  096%=      5-min Rain = 0
KCH1 140742Z 11002KT M02/M02 A3035 RMK A01 T10171023  RH  096%=      5-min Rain = 0
KCH1 140743Z 12002KT M02/M02 A3035 RMK A01 T10171023  RH  096%=      5-min Rain = 0
KCH1 140744Z 12002KT M02/M02 A3035 RMK A01 T10171023  RH  096%=      5-min Rain = 0
KCH1 140745Z 13002KT M02/M02 A3035 RMK A01 T10171023  RH  096%=      5-min Rain = 0
KCH1 140746Z 13002KT M02/M02 A3035 RMK A01 T10171024  RH  095%=      5-min Rain = 0
KCH1 140747Z 13003KT M02/M02 A3035 RMK A01 T10171024  RH  095%=      5-min Rain = 0
KCH1 140748Z 13003KT M02/M02 A3035 RMK A01 T10171024  RH  095%=      5-min Rain = 0
KCH1 140749Z 12003KT M02/M02 A3035 RMK A01 T10171024  RH  095%=      5-min Rain = 0
KCH1 140750Z 12003KT M02/M03 A3035 RMK A01 T10181025  RH  095%=      5-min Rain = 0
KCH1 140751Z 12003KT M02/M02 A3035 RMK A01 T10181024  RH  095%=      5-min Rain = 0
KCH1 140752Z 12003KT M02/M03 A3035 RMK A01 T10181025  RH  095%=      5-min Rain = 0
KCH1 140753Z 12003KT M02/M03 A3035 RMK A01 T10181025  RH  095%=      5-min Rain = 0
KCH1 140754Z 13003KT M02/M03 A3035 RMK A01 T10181025  RH  095%=      5-min Rain = 0
KCH1 140755Z 13003KT M02/M03 A3035 RMK A01 T10181025  RH  095%=      5-min Rain = 0
KCH1 140756Z 13003KT M02/M03 A3035 RMK A01 T10181025  RH  095%=      5-min Rain = 0
KCH1 140757Z 14003KT M02/M03 A3035 RMK A01 T10181025  RH  095%=      5-min Rain = 0
KCH1 140758Z 14003KT M02/M03 A3035 RMK A01 T10181025  RH  095%=      5-min Rain = 0
KCH1 140759Z 14003KT M02/M03 A3035 RMK A01 T10191026  RH  095%=      5-min Rain = 0
KCH1 140800Z 13004KT M02/M03 A3035 RMK A01 T10191026  RH  095%=      5-min Rain = 0
KCH1 140801Z 13004KT M02/M03 A3035 RMK A01 T10201026  RH  095%=      5-min Rain = 0
KCH1 140802Z 13003KT M02/M03 A3035 RMK A01 T10191025  RH  095%=      5-min Rain = 0
KCH1 140803Z 12003KT M02/M03 A3035 RMK A01 T10211027  RH  095%=      5-min Rain = 0
KCH1 140804Z 12003KT M02/M03 A3035 RMK A01 T10231031  RH  094%=      5-min Rain = 0
KCH1 140805Z 12003KT M03/M04 A3035 RMK A01 T10261035  RH  094%=      5-min Rain = 0
KCH1 140806Z 12002KT M03/M04 A3035 RMK A01 T10291038  RH  093%=      5-min Rain = 0
KCH1 140807Z 12002KT M03/M04 A3035 RMK A01 T10301039  RH  094%=      5-min Rain = 0
KCH1 140808Z 12002KT M03/M04 A3035 RMK A01 T10311039  RH  094%=      5-min Rain = 0
KCH1 140809Z 13002KT M03/M04 A3035 RMK A01 T10321039  RH  095%=      5-min Rain = 0
KCH1 140810Z 13002KT M03/M04 A3035 RMK A01 T10321039  RH  095%=      5-min Rain = 0
KCH1 140811Z 13002KT M03/M04 A3035 RMK A01 T10321038  RH  095%=      5-min Rain = 0
KCH1 140812Z 13002KT M03/M04 A3035 RMK A01 T10331040  RH  096%=      5-min Rain = 0
KCH1 140813Z 13002KT M03/M04 A3035 RMK A01 T10341040  RH  096%=      5-min Rain = 0
KCH1 140814Z 13002KT M04/M04 A3035 RMK A01 T10351041  RH  096%=      5-min Rain = 0
KCH1 140815Z 14002KT M04/M04 A3036 RMK A01 T10351041  RH  096%=      5-min Rain = 0
KCH1 140816Z 14002KT M04/M04 A3036 RMK A01 T10361040  RH  097%=      5-min Rain = 0
KCH1 140817Z 15002KT M04/M04 A3036 RMK A01 T10361040  RH  097%=      5-min Rain = 0
KCH1 140818Z 14003KT M04/M04 A3036 RMK A01 T10351039  RH  097%=      5-min Rain = 0
KCH1 140819Z 14003KT M03/M04 A3035 RMK A01 T10341036  RH  098%=      5-min Rain = 0
KCH1 140820Z 14003KT M03/M03 A3035 RMK A01 T10311033  RH  099%=      5-min Rain = 0
KCH1 140821Z 13004KT M03/M03 A3035 RMK A01 T10291031  RH  099%=      5-min Rain = 0
KCH1 140822Z 13004KT M03/M03 A3035 RMK A01 T10281029  RH  099%=      5-min Rain = 0
KCH1 140823Z 13003KT M03/M03 A3035 RMK A01 T10271028  RH  099%=      5-min Rain = 0
KCH1 140824Z 13003KT M03/M03 A3035 RMK A01 T10271027  RH  099%=      5-min Rain = 0
KCH1 140825Z 12003KT M03/M03 A3035 RMK A01 T10271028  RH  099%=      5-min Rain = 0
KCH1 140826Z 12003KT M03/M03 A3035 RMK A01 T10271028  RH  099%=      5-min Rain = 0
KCH1 140827Z 12003KT M03/M03 A3035 RMK A01 T10281030  RH  099%=      5-min Rain = 0
KCH1 140828Z 12003KT M03/M03 A3035 RMK A01 T10291031  RH  098%=      5-min Rain = 0
KCH1 140829Z 12003KT M03/M03 A3035 RMK A01 T10291031  RH  098%=      5-min Rain = 0
KCH1 140830Z 13003KT M03/M03 A3035 RMK A01 T10291031  RH  099%=      5-min Rain = 0
KCH1 140831Z 12003KT M03/M03 A3035 RMK A01 T10291031  RH  099%=      5-min Rain = 0
KCH1 140832Z 12003KT M03/M03 A3035 RMK A01 T10301033  RH  098%=      5-min Rain = 0
KCH1 140833Z 11003KT M03/M04 A3035 RMK A01 T10331036  RH  098%=      5-min Rain = 0
KCH1 140834Z 10003KT M04/M04 A3035 RMK A01 T10351039  RH  097%=      5-min Rain = 0
KCH1 140835Z 10003KT M04/M04 A3035 RMK A01 T10361040  RH  097%=      5-min Rain = 0
KCH1 140836Z 09003KT M04/M04 A3035 RMK A01 T10381042  RH  097%=      5-min Rain = 0
KCH1 140837Z 09003KT M04/M04 A3035 RMK A01 T10381043  RH  097%=      5-min Rain = 0
KCH1 140838Z 09003KT M04/M04 A3035 RMK A01 T10391043  RH  097%=      5-min Rain = 0
KCH1 140839Z 09003KT M04/M04 A3035 RMK A01 T10401044  RH  097%=      5-min Rain = 0
KCH1 140840Z 09003KT M04/M04 A3035 RMK A01 T10401044  RH  097%=      5-min Rain = 0
KCH1 140841Z 10002KT M04/M04 A3035 RMK A01 T10401044  RH  097%=      5-min Rain = 0
KCH1 140842Z 11002KT M04/M04 A3035 RMK A01 T10401043  RH  098%=      5-min Rain = 0
KCH1 140843Z 11003KT M04/M04 A3035 RMK A01 T10391041  RH  098%=      5-min Rain = 0
KCH1 140844Z 11003KT M04/M04 A3035 RMK A01 T10381040  RH  098%=      5-min Rain = 0
KCH1 140845Z 10003KT M04/M04 A3035 RMK A01 T10371039  RH  099%=      5-min Rain = 0
KCH1 140846Z 09003KT M04/M04 A3035 RMK A01 T10361037  RH  099%=      5-min Rain = 0
KCH1 140847Z 08003KT M04/M04 A3035 RMK A01 T10351037  RH  099%=      5-min Rain = 0
KCH1 140848Z 08003KT M04/M04 A3035 RMK A01 T10351037  RH  099%=      5-min Rain = 0
KCH1 140849Z 08003KT M04/M04 A3035 RMK A01 T10361037  RH  099%=      5-min Rain = 0
KCH1 140850Z 08003KT M04/M04 A3035 RMK A01 T10361037  RH  099%=      5-min Rain = 0
KCH1 140851Z 08003KT M04/M04 A3035 RMK A01 T10371038  RH  099%=      5-min Rain = 0
KCH1 140852Z 08003KT M04/M04 A3035 RMK A01 T10371038  RH  099%=      5-min Rain = 0
KCH1 140853Z 08003KT M04/M04 A3035 RMK A01 T10371038  RH  099%=      5-min Rain = 0
KCH1 140854Z 08003KT M04/M04 A3034 RMK A01 T10371038  RH  099%=      5-min Rain = 0
KCH1 140855Z 09003KT M04/M04 A3034 RMK A01 T10371038  RH  099%=      5-min Rain = 0
KCH1 140856Z 08003KT M04/M04 A3034 RMK A01 T10371038  RH  099%=      5-min Rain = 0
KCH1 140857Z 08003KT M04/M04 A3034 RMK A01 T10371038  RH  099%=      5-min Rain = 0
KCH1 140858Z 08003KT M04/M04 A3034 RMK A01 T10361037  RH  099%=      5-min Rain = 0
KCH1 140859Z 08003KT M04/M04 A3034 RMK A01 T10361037  RH  100%=      5-min Rain = 0
KCH1 140900Z 08004KT M04/M04 A3034 RMK A01 T10351035  RH  100%=      5-min Rain = 0
KCH1 140901Z 07004KT M03/M03 A3034 RMK A01 T10341034  RH  100%=      5-min Rain = 0
KCH1 140902Z 07003KT M03/M03 A3034 RMK A01 T10341034  RH  100%=      5-min Rain = 0
KCH1 140903Z 07004KT M03/M03 A3034 RMK A01 T10331033  RH  100%=      5-min Rain = 0
KCH1 140904Z 07003KT M03/M03 A3034 RMK A01 T10331033  RH  100%=      5-min Rain = 0
KCH1 140905Z 08003KT M03/M03 A3034 RMK A01 T10331033  RH  100%=      5-min Rain = 0
KCH1 140906Z 08003KT M03/M03 A3034 RMK A01 T10341034  RH  100%=      5-min Rain = 0
KCH1 140907Z 08003KT M03/M03 A3034 RMK A01 T10341034  RH  100%=      5-min Rain = 0
KCH1 140908Z 08004KT M03/M03 A3034 RMK A01 T10341034  RH  100%=      5-min Rain = 0
KCH1 140909Z 07004KT M03/M03 A3034 RMK A01 T10341034  RH  100%=      5-min Rain = 0
KCH1 140910Z 07004KT M03/M03 A3034 RMK A01 T10341034  RH  100%=      5-min Rain = 0
KCH1 140911Z 08004KT M03/M03 A3034 RMK A01 T10341034  RH  100%=      5-min Rain = 0
KCH1 140912Z 08004KT M03/M04 A3034 RMK A01 T10341035  RH  100%=      5-min Rain = 0
KCH1 140913Z 08004KT M04/M04 A3034 RMK A01 T10351036  RH  100%=      5-min Rain = 0
KCH1 140914Z 08004KT M04/M04 A3034 RMK A01 T10361037  RH  099%=      5-min Rain = 0
KCH1 140915Z 08004KT M04/M04 A3034 RMK A01 T10371038  RH  099%=      5-min Rain = 0
KCH1 140916Z 07004KT M04/M04 A3034 RMK A01 T10371038  RH  099%=      5-min Rain = 0
KCH1 140917Z 07004KT M04/M04 A3034 RMK A01 T10371038  RH  099%=      5-min Rain = 0
KCH1 140918Z 08004KT M04/M04 A3034 RMK A01 T10371038  RH  099%=      5-min Rain = 0
KCH1 140919Z 08004KT M04/M04 A3034 RMK A01 T10371038  RH  099%=      5-min Rain = 0
KCH1 140920Z 08004KT M04/M04 A3034 RMK A01 T10371038  RH  099%=      5-min Rain = 0
KCH1 140921Z 08004KT M04/M04 A3034 RMK A01 T10361037  RH  100%=      5-min Rain = 0
KCH1 140922Z 07004KT M04/M04 A3034 RMK A01 T10361037  RH  100%=      5-min Rain = 0
KCH1 140923Z 07005KT M04/M04 A3034 RMK A01 T10351036  RH  100%=      5-min Rain = 0
KCH1 140924Z 07005KT M04/M04 A3034 RMK A01 T10351035  RH  100%=      5-min Rain = 0
KCH1 140925Z 07004KT M04/M04 A3035 RMK A01 T10351035  RH  100%=      5-min Rain = 0
KCH1 140926Z 07004KT M04/M04 A3035 RMK A01 T10351035  RH  100%=      5-min Rain = 0
KCH1 140927Z 07004KT M04/M04 A3035 RMK A01 T10351036  RH  099%=      5-min Rain = 0
KCH1 140928Z 07004KT M04/M04 A3035 RMK A01 T10351036  RH  099%=      5-min Rain = 0
KCH1 140929Z 08004KT M04/M04 A3035 RMK A01 T10351037  RH  099%=      5-min Rain = 0
KCH1 140930Z 08004KT M04/M04 A3035 RMK A01 T10361037  RH  099%=      5-min Rain = 0
KCH1 140931Z 08004KT M04/M04 A3034 RMK A01 T10361037  RH  099%=      5-min Rain = 0
KCH1 140932Z 08004KT M04/M04 A3034 RMK A01 T10361037  RH  099%=      5-min Rain = 0
KCH1 140933Z 08004KT M04/M04 A3034 RMK A01 T10361037  RH  099%=      5-min Rain = 0
KCH1 140934Z 08004KT M04/M04 A3034 RMK A01 T10361037  RH  099%=      5-min Rain = 0
KCH1 140935Z 08004KT M04/M04 A3034 RMK A01 T10351036  RH  099%=      5-min Rain = 0
KCH1 140936Z 08004KT M04/M04 A3034 RMK A01 T10351036  RH  099%=      5-min Rain = 0
KCH1 140937Z 08004KT M04/M04 A3034 RMK A01 T10351036  RH  099%=      5-min Rain = 0
KCH1 140938Z 08004KT M04/M04 A3034 RMK A01 T10351036  RH  099%=      5-min Rain = 0
KCH1 140939Z 08004KT M04/M04 A3034 RMK A01 T10351036  RH  099%=      5-min Rain = 0
KCH1 140940Z 08004KT M04/M04 A3034 RMK A01 T10351036  RH  099%=      5-min Rain = 0
KCH1 140941Z 08004KT M04/M04 A3034 RMK A01 T10351037  RH  099%=      5-min Rain = 0
KCH1 140942Z 08004KT M04/M04 A3034 RMK A01 T10351037  RH  099%=      5-min Rain = 0
KCH1 140943Z 08004KT M04/M04 A3034 RMK A01 T10361037  RH  099%=      5-min Rain = 0
KCH1 140944Z 09004KT M04/M04 A3034 RMK A01 T10361038  RH  099%=      5-min Rain = 0
KCH1 140945Z 09004KT M04/M04 A3034 RMK A01 T10361038  RH  099%=      5-min Rain = 0
KCH1 140946Z 08004KT M04/M04 A3034 RMK A01 T10361037  RH  099%=      5-min Rain = 0
KCH1 140947Z 08004KT M04/M04 A3034 RMK A01 T10351036  RH  099%=      5-min Rain = 0
KCH1 140948Z 08004KT M03/M03 A3034 RMK A01 T10331034  RH  099%=      5-min Rain = 0
KCH1 140949Z 07004KT M03/M03 A3034 RMK A01 T10321033  RH  100%=      5-min Rain = 0
KCH1 140950Z 07004KT M03/M03 A3034 RMK A01 T10311032  RH  100%=      5-min Rain = 0
KCH1 140951Z 07004KT M03/M03 A3034 RMK A01 T10311032  RH  100%=      5-min Rain = 0
KCH1 140952Z 07004KT M03/M03 A3034 RMK A01 T10311032  RH  100%=      5-min Rain = 0
KCH1 140953Z 07004KT M03/M03 A3034 RMK A01 T10311032  RH  099%=      5-min Rain = 0
KCH1 140954Z 07003KT M03/M03 A3034 RMK A01 T10321033  RH  099%=      5-min Rain = 0
KCH1 140955Z 08003KT M03/M03 A3034 RMK A01 T10321033  RH  099%=      5-min Rain = 0
KCH1 140956Z 08003KT M03/M03 A3034 RMK A01 T10321034  RH  099%=      5-min Rain = 0
KCH1 140957Z 08003KT M03/M03 A3034 RMK A01 T10321034  RH  099%=      5-min Rain = 0
KCH1 140958Z 08003KT M03/M03 A3034 RMK A01 T10321034  RH  099%=      5-min Rain = 0
KCH1 140959Z 07003KT M03/M03 A3034 RMK A01 T10321034  RH  099%=      5-min Rain = 0
KCH1 141000Z 07003KT M03/M03 A3034 RMK A01 T10321034  RH  099%=      5-min Rain = 0
KCH1 141001Z 07003KT M03/M03 A3034 RMK A01 T10321034  RH  099%=      5-min Rain = 0
KCH1 141002Z 06003KT M03/M03 A3034 RMK A01 T10321034  RH  099%=      5-min Rain = 0
KCH1 141003Z 07004KT M03/M04 A3034 RMK A01 T10331035  RH  099%=      5-min Rain = 0
KCH1 141004Z 07004KT M03/M04 A3034 RMK A01 T10331035  RH  099%=      5-min Rain = 0
KCH1 141005Z 07004KT M03/M04 A3034 RMK A01 T10331035  RH  099%=      5-min Rain = 0
KCH1 141006Z 07004KT M03/M04 A3034 RMK A01 T10331035  RH  099%=      5-min Rain = 0
KCH1 141007Z 07004KT M03/M03 A3034 RMK A01 T10331034  RH  099%=      5-min Rain = 0
KCH1 141008Z 07004KT M03/M03 A3034 RMK A01 T10321034  RH  099%=      5-min Rain = 0
KCH1 141009Z 07004KT M03/M03 A3034 RMK A01 T10321033  RH  099%=      5-min Rain = 0
KCH1 141010Z 07004KT M03/M03 A3034 RMK A01 T10321033  RH  099%=      5-min Rain = 0
KCH1 141011Z 07004KT M03/M03 A3034 RMK A01 T10311033  RH  099%=      5-min Rain = 0
KCH1 141012Z 06004KT M03/M03 A3034 RMK A01 T10311032  RH  099%=      5-min Rain = 0
KCH1 141013Z 06004KT M03/M03 A3034 RMK A01 T10311033  RH  099%=      5-min Rain = 0
KCH1 141014Z 06004KT M03/M03 A3034 RMK A01 T10321033  RH  099%=      5-min Rain = 0
KCH1 141015Z 06004KT M03/M03 A3034 RMK A01 T10321033  RH  099%=      5-min Rain = 0
KCH1 141016Z 06004KT M03/M03 A3034 RMK A01 T10321034  RH  099%=      5-min Rain = 0
KCH1 141017Z 06004KT M03/M04 A3034 RMK A01 T10331035  RH  099%=      5-min Rain = 0
KCH1 141018Z 07004KT M03/M04 A3034 RMK A01 T10331035  RH  099%=      5-min Rain = 0
KCH1 141019Z 07004KT M03/M04 A3034 RMK A01 T10341036  RH  098%=      5-min Rain = 0
KCH1 141020Z 07004KT M03/M04 A3034 RMK A01 T10341036  RH  098%=      5-min Rain = 0
KCH1 141021Z 07004KT M03/M04 A3034 RMK A01 T10341036  RH  099%=      5-min Rain = 0
KCH1 141022Z 07004KT M03/M04 A3034 RMK A01 T10341035  RH  099%=      5-min Rain = 0
KCH1 141023Z 07004KT M03/M04 A3034 RMK A01 T10331035  RH  099%=      5-min Rain = 0
KCH1 141024Z 07003KT M03/M03 A3034 RMK A01 T10331034  RH  099%=      5-min Rain = 0
KCH1 141025Z 07004KT M03/M03 A3034 RMK A01 T10331034  RH  099%=      5-min Rain = 0
KCH1 141026Z 07004KT M03/M03 A3034 RMK A01 T10331034  RH  099%=      5-min Rain = 0
KCH1 141027Z 07004KT M03/M03 A3034 RMK A01 T10331034  RH  099%=      5-min Rain = 0
KCH1 141028Z 07004KT M03/M03 A3034 RMK A01 T10331034  RH  099%=      5-min Rain = 0
KCH1 141029Z 07004KT M03/M03 A3034 RMK A01 T10331034  RH  099%=      5-min Rain = 0
KCH1 141030Z 07004KT M03/M03 A3034 RMK A01 T10331034  RH  099%=      5-min Rain = 0
KCH1 141031Z 07003KT M03/M04 A3034 RMK A01 T10331035  RH  099%=      5-min Rain = 0
KCH1 141032Z 08003KT M03/M03 A3034 RMK A01 T10321034  RH  099%=      5-min Rain = 0
KCH1 141033Z 08003KT M03/M03 A3034 RMK A01 T10321034  RH  099%=      5-min Rain = 0
KCH1 141034Z 09003KT M03/M03 A3034 RMK A01 T10321034  RH  099%=      5-min Rain = 0
KCH1 141035Z 09003KT M03/M03 A3034 RMK A01 T10321033  RH  099%=      5-min Rain = 0
KCH1 141036Z 09003KT M03/M03 A3034 RMK A01 T10321033  RH  099%=      5-min Rain = 0
KCH1 141037Z 09003KT M03/M03 A3034 RMK A01 T10321033  RH  099%=      5-min Rain = 0
KCH1 141038Z 09003KT M03/M03 A3034 RMK A01 T10311033  RH  099%=      5-min Rain = 0
KCH1 141039Z 09003KT M03/M03 A3034 RMK A01 T10311032  RH  099%=      5-min Rain = 0
KCH1 141040Z 08003KT M03/M03 A3034 RMK A01 T10311032  RH  099%=      5-min Rain = 0
KCH1 141041Z 08003KT M03/M03 A3035 RMK A01 T10301032  RH  099%=      5-min Rain = 0
KCH1 141042Z 08003KT M03/M03 A3035 RMK A01 T10311032  RH  099%=      5-min Rain = 0
KCH1 141043Z 08003KT M03/M03 A3035 RMK A01 T10311032  RH  099%=      5-min Rain = 0
KCH1 141044Z 09003KT M03/M03 A3034 RMK A01 T10311032  RH  099%=      5-min Rain = 0
KCH1 141045Z 09003KT M03/M03 A3034 RMK A01 T10311032  RH  099%=      5-min Rain = 0
KCH1 141046Z 10003KT M03/M03 A3034 RMK A01 T10301032  RH  099%=      5-min Rain = 0
KCH1 141047Z 10003KT M03/M03 A3034 RMK A01 T10301032  RH  099%=      5-min Rain = 0
KCH1 141048Z 11003KT M03/M03 A3035 RMK A01 T10311033  RH  099%=      5-min Rain = 0
KCH1 141049Z 11003KT M03/M03 A3035 RMK A01 T10311033  RH  098%=      5-min Rain = 0
KCH1 141050Z 10003KT M03/M03 A3035 RMK A01 T10311033  RH  098%=      5-min Rain = 0
KCH1 141051Z 10003KT M03/M03 A3035 RMK A01 T10311033  RH  098%=      5-min Rain = 0
KCH1 141052Z 11003KT M03/M03 A3035 RMK A01 T10311033  RH  098%=      5-min Rain = 0
KCH1 141053Z 10003KT M03/M03 A3035 RMK A01 T10311034  RH  098%=      5-min Rain = 0
KCH1 141054Z 09003KT M03/M03 A3035 RMK A01 T10321034  RH  098%=      5-min Rain = 0
KCH1 141055Z 09003KT M03/M03 A3035 RMK A01 T10311034  RH  098%=      5-min Rain = 0
KCH1 141056Z 10003KT M03/M03 A3035 RMK A01 T10311034  RH  098%=      5-min Rain = 0
KCH1 141057Z 10003KT M03/M03 A3035 RMK A01 T10311033  RH  098%=      5-min Rain = 0
KCH1 141058Z 10003KT M03/M03 A3035 RMK A01 T10311034  RH  098%=      5-min Rain = 0
KCH1 141059Z 10003KT M03/M03 A3035 RMK A01 T10321034  RH  098%=      5-min Rain = 0
KCH1 141100Z 10003KT M03/M03 A3035 RMK A01 T10321034  RH  098%=      5-min Rain = 0
KCH1 141101Z 10003KT M03/M03 A3035 RMK A01 T10321034  RH  098%=      5-min Rain = 0
KCH1 141102Z 10003KT M03/M03 A3035 RMK A01 T10321034  RH  098%=      5-min Rain = 0
KCH1 141103Z 10003KT M03/M03 A3035 RMK A01 T10311033  RH  098%=      5-min Rain = 0
KCH1 141104Z 10003KT M03/M03 A3035 RMK A01 T10321034  RH  098%=      5-min Rain = 0
KCH1 141105Z 10003KT M03/M03 A3035 RMK A01 T10321034  RH  098%=      5-min Rain = 0
KCH1 141106Z 09003KT M03/M03 A3035 RMK A01 T10321034  RH  098%=      5-min Rain = 0
KCH1 141107Z 09003KT M03/M03 A3035 RMK A01 T10321034  RH  099%=      5-min Rain = 0
KCH1 141108Z 09003KT M03/M04 A3035 RMK A01 T10331035  RH  098%=      5-min Rain = 0
KCH1 141109Z 08003KT M04/M04 A3035 RMK A01 T10351037  RH  098%=      5-min Rain = 0
KCH1 141110Z 08003KT M04/M04 A3035 RMK A01 T10361039  RH  098%=      5-min Rain = 0
KCH1 141111Z 09003KT M04/M04 A3035 RMK A01 T10361039  RH  098%=      5-min Rain = 0
KCH1 141112Z 08003KT M04/M04 A3035 RMK A01 T10371040  RH  098%=      5-min Rain = 0
KCH1 141113Z 08003KT M04/M04 A3035 RMK A01 T10371040  RH  098%=      5-min Rain = 0
KCH1 141114Z 08003KT M04/M04 A3035 RMK A01 T10371040  RH  098%=      5-min Rain = 0
KCH1 141115Z 08003KT M04/M04 A3035 RMK A01 T10381041  RH  098%=      5-min Rain = 0
KCH1 141116Z 08003KT M04/M04 A3035 RMK A01 T10381041  RH  098%=      5-min Rain = 0
KCH1 141117Z 08003KT M04/M04 A3035 RMK A01 T10381041  RH  098%=      5-min Rain = 0
KCH1 141118Z 08003KT M04/M04 A3035 RMK A01 T10381040  RH  098%=      5-min Rain = 0
KCH1 141119Z 08003KT M04/M04 A3035 RMK A01 T10381040  RH  098%=      5-min Rain = 0
KCH1 141120Z 08003KT M04/M04 A3035 RMK A01 T10381040  RH  098%=      5-min Rain = 0
KCH1 141121Z 08003KT M04/M04 A3035 RMK A01 T10381040  RH  099%=      5-min Rain = 0
KCH1 141122Z 08002KT M04/M04 A3035 RMK A01 T10391041  RH  099%=      5-min Rain = 0
KCH1 141123Z 08003KT M04/M04 A3035 RMK A01 T10391041  RH  099%=      5-min Rain = 0
KCH1 141124Z 08003KT M04/M04 A3035 RMK A01 T10391041  RH  099%=      5-min Rain = 0
KCH1 141125Z 08003KT M04/M04 A3035 RMK A01 T10381040  RH  099%=      5-min Rain = 0
KCH1 141126Z 07003KT M04/M04 A3035 RMK A01 T10391041  RH  099%=      5-min Rain = 0
KCH1 141127Z 07003KT M04/M04 A3035 RMK A01 T10391041  RH  099%=      5-min Rain = 0
KCH1 141128Z 07003KT M04/M04 A3035 RMK A01 T10391041  RH  099%=      5-min Rain = 0
KCH1 141129Z 07003KT M04/M04 A3035 RMK A01 T10391041  RH  099%=      5-min Rain = 0
KCH1 141130Z 07003KT M04/M04 A3035 RMK A01 T10391041  RH  099%=      5-min Rain = 0
KCH1 141131Z 07003KT M04/M04 A3035 RMK A01 T10411043  RH  099%=      5-min Rain = 0
KCH1 141132Z 08003KT M04/M05 A3035 RMK A01 T10421045  RH  098%=      5-min Rain = 0
KCH1 141133Z 08003KT M04/M05 A3036 RMK A01 T10431045  RH  098%=      5-min Rain = 0
KCH1 141134Z 08003KT M04/M05 A3036 RMK A01 T10431045  RH  098%=      5-min Rain = 0
KCH1 141135Z 08003KT M04/M04 A3036 RMK A01 T10421044  RH  099%=      5-min Rain = 0
KCH1 141136Z 08003KT M04/M04 A3036 RMK A01 T10421043  RH  099%=      5-min Rain = 0
KCH1 141137Z 08003KT M04/M04 A3036 RMK A01 T10411043  RH  099%=      5-min Rain = 0
KCH1 141138Z 08003KT M04/M04 A3036 RMK A01 T10401042  RH  099%=      5-min Rain = 0
KCH1 141139Z 08003KT M04/M04 A3036 RMK A01 T10401041  RH  099%=      5-min Rain = 0
KCH1 141140Z 08003KT M04/M04 A3036 RMK A01 T10391040  RH  099%=      5-min Rain = 0
KCH1 141141Z 08003KT M04/M04 A3036 RMK A01 T10391041  RH  099%=      5-min Rain = 0
KCH1 141142Z 08003KT M04/M04 A3036 RMK A01 T10401041  RH  099%=      5-min Rain = 0
KCH1 141143Z 08003KT M04/M04 A3036 RMK A01 T10401041  RH  099%=      5-min Rain = 0
KCH1 141144Z 08003KT M04/M04 A3036 RMK A01 T10401041  RH  099%=      5-min Rain = 0
KCH1 141145Z 07003KT M04/M04 A3036 RMK A01 T10411043  RH  099%=      5-min Rain = 0
KCH1 141146Z 07003KT M04/M04 A3036 RMK A01 T10411043  RH  099%=      5-min Rain = 0
KCH1 141147Z 08003KT M04/M04 A3036 RMK A01 T10421044  RH  099%=      5-min Rain = 0
KCH1 141148Z 08003KT M04/M05 A3036 RMK A01 T10431045  RH  098%=      5-min Rain = 0
KCH1 141149Z 08003KT M04/M05 A3036 RMK A01 T10441047  RH  098%=      5-min Rain = 0
KCH1 141150Z 08003KT M05/M05 A3036 RMK A01 T10451047  RH  098%=      5-min Rain = 0
KCH1 141151Z 08003KT M04/M05 A3036 RMK A01 T10441046  RH  098%=      5-min Rain = 0
KCH1 141152Z 08003KT M04/M05 A3036 RMK A01 T10441047  RH  098%=      5-min Rain = 0
KCH1 141153Z 08003KT M04/M05 A3036 RMK A01 T10441046  RH  099%=      5-min Rain = 0
KCH1 141154Z 08003KT M04/M05 A3036 RMK A01 T10431045  RH  099%=      5-min Rain = 0
KCH1 141155Z 08003KT M04/M04 A3036 RMK A01 T10431044  RH  099%=      5-min Rain = 0
KCH1 141156Z 08003KT M04/M04 A3036 RMK A01 T10421044  RH  099%=      5-min Rain = 0
KCH1 141157Z 08003KT M04/M04 A3036 RMK A01 T10421044  RH  099%=      5-min Rain = 0
KCH1 141158Z 08003KT M04/M04 A3036 RMK A01 T10421044  RH  099%=      5-min Rain = 0
KCH1 141159Z 08003KT M04/M04 A3036 RMK A01 T10421044  RH  099%=      5-min Rain = 0
KCH1 141200Z 08003KT M04/M04 A3036 RMK A01 T10421044  RH  099%=      5-min Rain = 0
KCH1 141201Z 08003KT M04/M05 A3036 RMK A01 T10431045  RH  099%=      5-min Rain = 0
KCH1 141202Z 08003KT M04/M04 A3036 RMK A01 T10431044  RH  099%=      5-min Rain = 0
KCH1 141203Z 08003KT M04/M04 A3036 RMK A01 T10431044  RH  099%=      5-min Rain = 0
KCH1 141204Z 08003KT M04/M04 A3036 RMK A01 T10431044  RH  099%=      5-min Rain = 0
KCH1 141205Z 07003KT M04/M05 A3036 RMK A01 T10431045  RH  099%=      5-min Rain = 0
KCH1 141206Z 07003KT M04/M05 A3036 RMK A01 T10431045  RH  099%=      5-min Rain = 0
KCH1 141207Z 07004KT M04/M05 A3036 RMK A01 T10431045  RH  099%=      5-min Rain = 0
KCH1 141208Z 07004KT M04/M05 A3036 RMK A01 T10441045  RH  099%=      5-min Rain = 0
KCH1 141209Z 07004KT M04/M05 A3036 RMK A01 T10441046  RH  099%=      5-min Rain = 0
KCH1 141210Z 07004KT M04/M05 A3036 RMK A01 T10441046  RH  099%=      5-min Rain = 0
KCH1 141211Z 07004KT M05/M05 A3036 RMK A01 T10451047  RH  098%=      5-min Rain = 0
KCH1 141212Z 07004KT M05/M05 A3036 RMK A01 T10451047  RH  098%=      5-min Rain = 0
KCH1 141213Z 07004KT M05/M05 A3036 RMK A01 T10451047  RH  098%=      5-min Rain = 0
KCH1 141214Z 08004KT M05/M05 A3036 RMK A01 T10451047  RH  098%=      5-min Rain = 0
KCH1 141215Z 08004KT M05/M05 A3036 RMK A01 T10451047  RH  098%=      5-min Rain = 0
KCH1 141216Z 08004KT M05/M05 A3036 RMK A01 T10451047  RH  099%=      5-min Rain = 0
KCH1 141217Z 08004KT M05/M05 A3036 RMK A01 T10451047  RH  099%=      5-min Rain = 0
KCH1 141218Z 08004KT M04/M05 A3036 RMK A01 T10441046  RH  099%=      5-min Rain = 0
KCH1 141219Z 08004KT M04/M05 A3036 RMK A01 T10431045  RH  099%=      5-min Rain = 0
KCH1 141220Z 08004KT M04/M04 A3036 RMK A01 T10431044  RH  099%=      5-min Rain = 0
KCH1 141221Z 07004KT M04/M04 A3036 RMK A01 T10421043  RH  099%=      5-min Rain = 0
KCH1 141222Z 07004KT M04/M04 A3036 RMK A01 T10411043  RH  099%=      5-min Rain = 0
KCH1 141223Z 07004KT M04/M04 A3036 RMK A01 T10411042  RH  099%=      5-min Rain = 0
KCH1 141224Z 07004KT M04/M04 A3036 RMK A01 T10411042  RH  099%=      5-min Rain = 0
KCH1 141225Z 07004KT M04/M04 A3036 RMK A01 T10411042  RH  099%=      5-min Rain = 0
KCH1 141226Z 07004KT M04/M04 A3036 RMK A01 T10411042  RH  099%=      5-min Rain = 0
KCH1 141227Z 08004KT M04/M04 A3036 RMK A01 T10411042  RH  099%=      5-min Rain = 0
KCH1 141228Z 08004KT M04/M04 A3036 RMK A01 T10411042  RH  099%=      5-min Rain = 0
KCH1 141229Z 07004KT M04/M04 A3036 RMK A01 T10411043  RH  099%=      5-min Rain = 0
KCH1 141230Z 08004KT M04/M04 A3036 RMK A01 T10411043  RH  099%=      5-min Rain = 0
KCH1 141231Z 08004KT M04/M04 A3036 RMK A01 T10411043  RH  099%=      5-min Rain = 0
KCH1 141232Z 08004KT M04/M04 A3036 RMK A01 T10411043  RH  099%=      5-min Rain = 0
KCH1 141233Z 08004KT M04/M04 A3036 RMK A01 T10411043  RH  099%=      5-min Rain = 0
KCH1 141234Z 08004KT M04/M04 A3036 RMK A01 T10411042  RH  099%=      5-min Rain = 0
KCH1 141235Z 08004KT M04/M04 A3036 RMK A01 T10411043  RH  099%=      5-min Rain = 0
KCH1 141236Z 08004KT M04/M04 A3036 RMK A01 T10421043  RH  099%=      5-min Rain = 0
KCH1 141237Z 08004KT M04/M04 A3036 RMK A01 T10411043  RH  099%=      5-min Rain = 0
KCH1 141238Z 08003KT M04/M04 A3036 RMK A01 T10411043  RH  099%=      5-min Rain = 0
KCH1 141239Z 07003KT M04/M04 A3036 RMK A01 T10411043  RH  099%=      5-min Rain = 0
KCH1 141240Z 07003KT M04/M04 A3036 RMK A01 T10411043  RH  099%=      5-min Rain = 0
KCH1 141241Z 07003KT M04/M04 A3036 RMK A01 T10421044  RH  099%=      5-min Rain = 0
KCH1 141242Z 06004KT M04/M04 A3036 RMK A01 T10421044  RH  099%=      5-min Rain = 0
KCH1 141243Z 06004KT M04/M04 A3036 RMK A01 T10421044  RH  099%=      5-min Rain = 0
KCH1 141244Z 06004KT M04/M04 A3036 RMK A01 T10411043  RH  099%=      5-min Rain = 0
KCH1 141245Z 06004KT M04/M04 A3037 RMK A01 T10411043  RH  099%=      5-min Rain = 0
KCH1 141246Z 07004KT M04/M04 A3037 RMK A01 T10411042  RH  099%=      5-min Rain = 0
KCH1 141247Z 07004KT M04/M04 A3037 RMK A01 T10411042  RH  099%=      5-min Rain = 0
KCH1 141248Z 07004KT M04/M04 A3037 RMK A01 T10411042  RH  099%=      5-min Rain = 0
KCH1 141249Z 07004KT M04/M04 A3037 RMK A01 T10411043  RH  099%=      5-min Rain = 0
KCH1 141250Z 07004KT M04/M04 A3037 RMK A01 T10411042  RH  099%=      5-min Rain = 0
KCH1 141251Z 07004KT M04/M04 A3037 RMK A01 T10411042  RH  099%=      5-min Rain = 0
KCH1 141252Z 08004KT M04/M04 A3037 RMK A01 T10411042  RH  099%=      5-min Rain = 0
KCH1 141253Z 08004KT M04/M04 A3037 RMK A01 T10411042  RH  099%=      5-min Rain = 0
KCH1 141254Z 07004KT M04/M04 A3037 RMK A01 T10401042  RH  099%=      5-min Rain = 0
KCH1 141255Z 07004KT M04/M04 A3037 RMK A01 T10401041  RH  099%=      5-min Rain = 0
KCH1 141256Z 07004KT M04/M04 A3037 RMK A01 T10401041  RH  099%=      5-min Rain = 0
KCH1 141257Z 07004KT M04/M04 A3037 RMK A01 T10401041  RH  099%=      5-min Rain = 0
KCH1 141258Z 07004KT M04/M04 A3037 RMK A01 T10401042  RH  099%=      5-min Rain = 0
KCH1 141259Z 07004KT M04/M04 A3037 RMK A01 T10401041  RH  099%=      5-min Rain = 0
KCH1 141300Z 07004KT M04/M04 A3037 RMK A01 T10401042  RH  099%=      5-min Rain = 0
KCH1 141301Z 07004KT M04/M04 A3037 RMK A01 T10401041  RH  099%=      5-min Rain = 0
KCH1 141302Z 07004KT M04/M04 A3037 RMK A01 T10401042  RH  099%=      5-min Rain = 0
KCH1 141303Z 07005KT M04/M04 A3037 RMK A01 T10401042  RH  099%=      5-min Rain = 0
KCH1 141304Z 07004KT M04/M04 A3037 RMK A01 T10401041  RH  099%=      5-min Rain = 0
KCH1 141305Z 07004KT M04/M04 A3037 RMK A01 T10401042  RH  099%=      5-min Rain = 0
KCH1 141306Z 07004KT M04/M04 A3037 RMK A01 T10401042  RH  099%=      5-min Rain = 0
KCH1 141307Z 07004KT M04/M04 A3038 RMK A01 T10401042  RH  099%=      5-min Rain = 0
KCH1 141308Z 07004KT M04/M04 A3038 RMK A01 T10401042  RH  099%=      5-min Rain = 0
KCH1 141309Z 07004KT M04/M04 A3038 RMK A01 T10411043  RH  099%=      5-min Rain = 0
KCH1 141310Z 07004KT M04/M04 A3038 RMK A01 T10411043  RH  099%=      5-min Rain = 0
KCH1 141311Z 07004KT M04/M04 A3038 RMK A01 T10411042  RH  099%=      5-min Rain = 0
KCH1 141312Z 07004KT M04/M04 A3038 RMK A01 T10401042  RH  099%=      5-min Rain = 0
KCH1 141313Z 07004KT M04/M04 A3038 RMK A01 T10401042  RH  099%=      5-min Rain = 0
KCH1 141314Z 07004KT M04/M04 A3038 RMK A01 T10401041  RH  099%=      5-min Rain = 0
KCH1 141315Z 07004KT M04/M04 A3038 RMK A01 T10401041  RH  099%=      5-min Rain = 0
KCH1 141316Z 07004KT M04/M04 A3038 RMK A01 T10401041  RH  099%=      5-min Rain = 0
KCH1 141317Z 07003KT M04/M04 A3038 RMK A01 T10401041  RH  099%=      5-min Rain = 0
KCH1 141318Z 07003KT M04/M04 A3038 RMK A01 T10391041  RH  099%=      5-min Rain = 0
KCH1 141319Z 07003KT M04/M04 A3038 RMK A01 T10391041  RH  099%=      5-min Rain = 0
KCH1 141320Z 07004KT M04/M04 A3038 RMK A01 T10391041  RH  099%=      5-min Rain = 0
KCH1 141321Z 07004KT M04/M04 A3038 RMK A01 T10391040  RH  099%=      5-min Rain = 0
KCH1 141322Z 07004KT M04/M04 A3038 RMK A01 T10391040  RH  099%=      5-min Rain = 0
KCH1 141323Z 07004KT M04/M04 A3038 RMK A01 T10391041  RH  099%=      5-min Rain = 0
KCH1 141324Z 07004KT M04/M04 A3038 RMK A01 T10391040  RH  099%=      5-min Rain = 0
KCH1 141325Z 07004KT M04/M04 A3038 RMK A01 T10391040  RH  099%=      5-min Rain = 0
KCH1 141326Z 07004KT M04/M04 A3038 RMK A01 T10391040  RH  099%=      5-min Rain = 0
KCH1 141327Z 07004KT M04/M04 A3038 RMK A01 T10391040  RH  099%=      5-min Rain = 0
KCH1 141328Z 07004KT M04/M04 A3038 RMK A01 T10391041  RH  099%=      5-min Rain = 0
KCH1 141329Z 07004KT M04/M04 A3038 RMK A01 T10391041  RH  099%=      5-min Rain = 0
KCH1 141330Z 07004KT M04/M04 A3038 RMK A01 T10391040  RH  099%=      5-min Rain = 0
KCH1 141331Z 08004KT M04/M04 A3038 RMK A01 T10391040  RH  099%=      5-min Rain = 0
KCH1 141332Z 08003KT M04/M04 A3038 RMK A01 T10391040  RH  099%=      5-min Rain = 0
KCH1 141333Z 08003KT M04/M04 A3038 RMK A01 T10391040  RH  099%=      5-min Rain = 0
KCH1 141334Z 08003KT M04/M04 A3038 RMK A01 T10391040  RH  099%=      5-min Rain = 0
KCH1 141335Z 08003KT M04/M04 A3038 RMK A01 T10381040  RH  099%=      5-min Rain = 0
KCH1 141336Z 08004KT M04/M04 A3038 RMK A01 T10381040  RH  099%=      5-min Rain = 0
KCH1 141337Z 08003KT M04/M04 A3038 RMK A01 T10381039  RH  099%=      5-min Rain = 0
KCH1 141338Z 08003KT M04/M04 A3038 RMK A01 T10381039  RH  099%=      5-min Rain = 0
KCH1 141339Z 09003KT M04/M04 A3038 RMK A01 T10381040  RH  099%=      5-min Rain = 0
KCH1 141340Z 09003KT M04/M04 A3038 RMK A01 T10381040  RH  099%=      5-min Rain = 0
KCH1 141341Z 09003KT M04/M04 A3038 RMK A01 T10381040  RH  099%=      5-min Rain = 0
KCH1 141342Z 09003KT M04/M04 A3038 RMK A01 T10381040  RH  099%=      5-min Rain = 0
KCH1 141343Z 09003KT M04/M04 A3038 RMK A01 T10381039  RH  099%=      5-min Rain = 0
KCH1 141344Z 09003KT M04/M04 A3038 RMK A01 T10371039  RH  099%=      5-min Rain = 0
KCH1 141345Z 09003KT M04/M04 A3038 RMK A01 T10371038  RH  099%=      5-min Rain = 0
KCH1 141346Z 09003KT M04/M04 A3038 RMK A01 T10371038  RH  099%=      5-min Rain = 0
KCH1 141347Z 09003KT M04/M04 A3038 RMK A01 T10361038  RH  099%=      5-min Rain = 0
KCH1 141348Z 09003KT M04/M04 A3038 RMK A01 T10361037  RH  099%=      5-min Rain = 0
KCH1 141349Z 09003KT M04/M04 A3038 RMK A01 T10351037  RH  099%=      5-min Rain = 0
KCH1 141350Z 09003KT M04/M04 A3038 RMK A01 T10351036  RH  099%=      5-min Rain = 0
KCH1 141351Z 09003KT M03/M04 A3038 RMK A01 T10341036  RH  099%=      5-min Rain = 0
KCH1 141352Z 09003KT M04/M04 A3038 RMK A01 T10351036  RH  099%=      5-min Rain = 0
KCH1 141353Z 09003KT M03/M04 A3038 RMK A01 T10341036  RH  099%=      5-min Rain = 0
KCH1 141354Z 09003KT M03/M04 A3038 RMK A01 T10341035  RH  099%=      5-min Rain = 0
KCH1 141355Z 10003KT M03/M04 A3038 RMK A01 T10331035  RH  099%=      5-min Rain = 0
KCH1 141356Z 09003KT M03/M04 A3038 RMK A01 T10331035  RH  099%=      5-min Rain = 0
KCH1 141357Z 09003KT M03/M04 A3038 RMK A01 T10331035  RH  098%=      5-min Rain = 0
KCH1 141358Z 09003KT M03/M04 A3038 RMK A01 T10331035  RH  098%=      5-min Rain = 0
KCH1 141359Z 09003KT M03/M04 A3038 RMK A01 T10331035  RH  098%=      5-min Rain = 0
KCH1 141400Z 10003KT M03/M04 A3038 RMK A01 T10331036  RH  098%=      5-min Rain = 0
KCH1 141401Z 10003KT M03/M04 A3038 RMK A01 T10321035  RH  098%=      5-min Rain = 0
KCH1 141402Z 10003KT M03/M04 A3038 RMK A01 T10321035  RH  098%=      5-min Rain = 0
KCH1 141403Z 10003KT M03/M03 A3039 RMK A01 T10311034  RH  098%=      5-min Rain = 0
KCH1 141404Z 10003KT M03/M03 A3039 RMK A01 T10311034  RH  098%=      5-min Rain = 0
KCH1 141405Z 10003KT M03/M03 A3039 RMK A01 T10311034  RH  098%=      5-min Rain = 0
KCH1 141406Z 10002KT M03/M03 A3039 RMK A01 T10301033  RH  098%=      5-min Rain = 0
KCH1 141407Z 10003KT M03/M03 A3039 RMK A01 T10301033  RH  098%=      5-min Rain = 0
KCH1 141408Z 10002KT M03/M03 A3039 RMK A01 T10301033  RH  098%=      5-min Rain = 0
KCH1 141409Z 10003KT M03/M03 A3039 RMK A01 T10291032  RH  098%=      5-min Rain = 0
KCH1 141410Z 10003KT M03/M03 A3039 RMK A01 T10291032  RH  098%=      5-min Rain = 0
KCH1 141411Z 10003KT M03/M03 A3039 RMK A01 T10291032  RH  098%=      5-min Rain = 0
KCH1 141412Z 10003KT M03/M03 A3039 RMK A01 T10281031  RH  098%=      5-min Rain = 0
KCH1 141413Z 10003KT M03/M03 A3039 RMK A01 T10281030  RH  098%=      5-min Rain = 0
KCH1 141414Z 10003KT M03/M03 A3039 RMK A01 T10271030  RH  098%=      5-min Rain = 0
KCH1 141415Z 10002KT M03/M03 A3039 RMK A01 T10261029  RH  098%=      5-min Rain = 0
KCH1 141416Z 11003KT M03/M03 A3039 RMK A01 T10251027  RH  098%=      5-min Rain = 0
KCH1 141417Z 10003KT M02/M03 A3039 RMK A01 T10231026  RH  098%=      5-min Rain = 0
KCH1 141418Z 10003KT M02/M02 A3039 RMK A01 T10211024  RH  098%=      5-min Rain = 0
KCH1 141419Z 10003KT M02/M02 A3039 RMK A01 T10201023  RH  098%=      5-min Rain = 0
KCH1 141420Z 11003KT M02/M02 A3039 RMK A01 T10201022  RH  098%=      5-min Rain = 0
KCH1 141421Z 10003KT M02/M02 A3039 RMK A01 T10181021  RH  098%=      5-min Rain = 0
KCH1 141422Z 10003KT M02/M02 A3039 RMK A01 T10171020  RH  098%=      5-min Rain = 0
KCH1 141423Z 10003KT M02/M02 A3039 RMK A01 T10161019  RH  098%=      5-min Rain = 0
KCH1 141424Z 10003KT M02/M02 A3039 RMK A01 T10161020  RH  097%=      5-min Rain = 0
KCH1 141425Z 10003KT M02/M02 A3039 RMK A01 T10151019  RH  097%=      5-min Rain = 0
KCH1 141426Z 10003KT M01/M02 A3039 RMK A01 T10141018  RH  097%=      5-min Rain = 0
KCH1 141427Z 10003KT M01/M02 A3039 RMK A01 T10131017  RH  097%=      5-min Rain = 0
KCH1 141428Z 10004KT M01/M02 A3039 RMK A01 T10121016  RH  097%=      5-min Rain = 0
KCH1 141429Z 12004KT M01/M02 A3039 RMK A01 T10111016  RH  097%=      5-min Rain = 0
KCH1 141430Z 11005KT M01/M02 A3039 RMK A01 T10111016  RH  096%=      5-min Rain = 0
KCH1 141431Z 11004KT M01/M02 A3039 RMK A01 T10101016  RH  096%=      5-min Rain = 0
KCH1 141432Z 10005KT M01/M02 A3039 RMK A01 T10101015  RH  096%=      5-min Rain = 0
KCH1 141433Z 12004KT M01/M02 A3039 RMK A01 T10091015  RH  096%=      5-min Rain = 0
KCH1 141434Z 11006KT M01/M02 A3039 RMK A01 T10091015  RH  096%=      5-min Rain = 0
KCH1 141435Z 12005KT M01/M02 A3039 RMK A01 T10081015  RH  096%=      5-min Rain = 0
KCH1 141436Z 12005KT M01/M02 A3039 RMK A01 T10091016  RH  095%=      5-min Rain = 0
KCH1 141437Z 12004KT M01/M02 A3039 RMK A01 T10091016  RH  095%=      5-min Rain = 0
KCH1 141438Z 11004KT M01/M02 A3039 RMK A01 T10081015  RH  095%=      5-min Rain = 0
KCH1 141439Z 11004KT M01/M01 A3039 RMK A01 T10071013  RH  096%=      5-min Rain = 0
KCH1 141440Z 11005KT M01/M01 A3039 RMK A01 T10071013  RH  096%=      5-min Rain = 0
KCH1 141441Z 11005KT M01/M01 A3039 RMK A01 T10071014  RH  095%=      5-min Rain = 0
KCH1 141442Z 12004KT M01/M02 A3039 RMK A01 T10081015  RH  095%=      5-min Rain = 0
KCH1 141443Z 12005KT M01/M02 A3039 RMK A01 T10071015  RH  095%=      5-min Rain = 0
KCH1 141444Z 11004KT M01/M01 A3039 RMK A01 T10071014  RH  095%=      5-min Rain = 0
KCH1 141445Z 12004KT M01/M01 A3039 RMK A01 T10061012  RH  096%=      5-min Rain = 0
KCH1 141446Z 11005KT M00/M01 A3039 RMK A01 T10041010  RH  096%=      5-min Rain = 0
KCH1 141447Z 12003KT M00/M01 A3039 RMK A01 T10041010  RH  096%=      5-min Rain = 0
KCH1 141448Z 12006KT M00/M01 A3039 RMK A01 T10031009  RH  096%=      5-min Rain = 0
KCH1 141449Z 12006KT M00/M01 A304 RMK A01 T10031009  RH  096%=      5-min Rain = 0
KCH1 141450Z 12005KT M00/M01 A304 RMK A01 T10031009  RH  096%=      5-min Rain = 0
KCH1 141451Z 12006KT M00/M01 A304 RMK A01 T10031009  RH  095%=      5-min Rain = 0
KCH1 141452Z 12010KT M00/M01 A304 RMK A01 T10031010  RH  095%=      5-min Rain = 0
KCH1 141453Z 14009KT M00/M01 A304 RMK A01 T10041012  RH  094%=      5-min Rain = 0
KCH1 141454Z 13008KT M00/M01 A304 RMK A01 T10041013  RH  094%=      5-min Rain = 0
KCH1 141455Z 12008KT M00/M01 A304 RMK A01 T10041012  RH  094%=      5-min Rain = 0
KCH1 141456Z 12009KT M00/M01 A3039 RMK A01 T10041012  RH  094%=      5-min Rain = 0
KCH1 141457Z 13007KT M00/M01 A3039 RMK A01 T10041013  RH  093%=      5-min Rain = 0
KCH1 141458Z 12007KT M00/M01 A3039 RMK A01 T10041014  RH  093%=      5-min Rain = 0
KCH1 141459Z 12008KT M01/M02 A3039 RMK A01 T10051015  RH  093%=      5-min Rain = 0
KCH1 141500Z 13009KT M01/M01 A304 RMK A01 T10051014  RH  093%=      5-min Rain = 0
KCH1 141501Z 14008KT M00/M01 A3039 RMK A01 T10041014  RH  093%=      5-min Rain = 0
KCH1 141502Z 14007KT M00/M01 A3039 RMK A01 T10031013  RH  093%=      5-min Rain = 0
KCH1 141503Z 12007KT M00/M01 A3039 RMK A01 T10021011  RH  094%=      5-min Rain = 0
KCH1 141504Z 11007KT M00/M01 A3039 RMK A01 T10011010  RH  094%=      5-min Rain = 0
KCH1 141505Z 11009KT M00/M01 A3039 RMK A01 T10011010  RH  093%=      5-min Rain = 0
KCH1 141506Z 13006KT M00/M01 A304 RMK A01 T10011011  RH  093%=      5-min Rain = 0
KCH1 141507Z 13007KT M00/M01 A304 RMK A01 T10011012  RH  093%=      5-min Rain = 0
KCH1 141508Z 15007KT M00/M01 A304 RMK A01 T10021012  RH  092%=      5-min Rain = 0
KCH1 141509Z 14008KT M00/M01 A304 RMK A01 T10021012  RH  093%=      5-min Rain = 0
KCH1 141510Z 15008KT M00/M01 A304 RMK A01 T10011011  RH  093%=      5-min Rain = 0
KCH1 141511Z 13009KT M00/M01 A304 RMK A01 T10011011  RH  093%=      5-min Rain = 0
KCH1 141512Z 13008KT M00/M01 A304 RMK A01 T10021013  RH  092%=      5-min Rain = 0
KCH1 141513Z 14007KT M00/M01 A304 RMK A01 T10021014  RH  092%=      5-min Rain = 0
KCH1 141514Z 14008KT M00/M01 A304 RMK A01 T10021012  RH  093%=      5-min Rain = 0
KCH1 141515Z 13006KT M00/M01 A304 RMK A01 T10011011  RH  093%=      5-min Rain = 0
KCH1 141516Z 15007KT 00/01 A304 RMK A01 T000000-9  RH  093%=      5-min Rain = 0
KCH1 141517Z 15008KT 00/M01 A304 RMK A01 T00011008  RH  094%=      5-min Rain = 0
KCH1 141518Z 14007KT 00/M01 A304 RMK A01 T00011009  RH  093%=      5-min Rain = 0
KCH1 141519Z 14007KT 00/01 A304 RMK A01 T00-00-11  RH  093%=      5-min Rain = 0
KCH1 141520Z 13006KT M00/M01 A304 RMK A01 T10011012  RH  092%=      5-min Rain = 0
KCH1 141521Z 14007KT 00/M01 A304 RMK A01 T00011009  RH  093%=      5-min Rain = 0
KCH1 141522Z 14009KT 00/M01 A304 RMK A01 T00011008  RH  093%=      5-min Rain = 0
KCH1 141523Z 14008KT 00/M01 A304 RMK A01 T00021009  RH  093%=      5-min Rain = 0
KCH1 141524Z 13008KT 00/M01 A304 RMK A01 T00021008  RH  093%=      5-min Rain = 0
KCH1 141525Z 13009KT 00/M01 A304 RMK A01 T00021010  RH  092%=      5-min Rain = 0
KCH1 141526Z 13007KT 00/M01 A304 RMK A01 T00011011  RH  092%=      5-min Rain = 0
KCH1 141527Z 13008KT 00/M01 A304 RMK A01 T00011011  RH  092%=      5-min Rain = 0
KCH1 141528Z 14008KT 00/M01 A304 RMK A01 T00011011  RH  092%=      5-min Rain = 0
KCH1 141529Z 14008KT 00/M01 A304 RMK A01 T00011010  RH  092%=      5-min Rain = 0
KCH1 141530Z 14007KT 00/M01 A304 RMK A01 T00011011  RH  092%=      5-min Rain = 0
KCH1 141531Z 12007KT 00/M01 A304 RMK A01 T00011010  RH  092%=      5-min Rain = 0
KCH1 141532Z 13006KT 00/M01 A304 RMK A01 T00021009  RH  092%=      5-min Rain = 0
KCH1 141533Z 12009KT 00/M01 A304 RMK A01 T00021009  RH  092%=      5-min Rain = 0
KCH1 141534Z 13007KT 00/M01 A304 RMK A01 T00021011  RH  091%=      5-min Rain = 0
KCH1 141535Z 13007KT 00/M01 A304 RMK A01 T00021008  RH  093%=      5-min Rain = 0
KCH1 141536Z 13008KT 00/M01 A304 RMK A01 T00031008  RH  092%=      5-min Rain = 0
KCH1 141537Z 13010KT 00/M01 A304 RMK A01 T00031009  RH  092%=      5-min Rain = 0
KCH1 141538Z 15011KT 00/M01 A304 RMK A01 T00031011  RH  091%=      5-min Rain = 0
KCH1 141539Z 14009KT 00/M01 A304 RMK A01 T00021013  RH  090%=      5-min Rain = 0
KCH1 141540Z 14008KT 00/M01 A304 RMK A01 T00011013  RH  090%=      5-min Rain = 0
KCH1 141541Z 15010KT 00/M01 A304 RMK A01 T00021010  RH  092%=      5-min Rain = 0
KCH1 141542Z 15010KT 00/M01 A304 RMK A01 T00021010  RH  091%=      5-min Rain = 0
KCH1 141543Z 14007KT 00/M01 A304 RMK A01 T00031010  RH  091%=      5-min Rain = 0
KCH1 141544Z 13007KT 00/M01 A304 RMK A01 T00031009  RH  092%=      5-min Rain = 0
KCH1 141545Z 12011KT 00/M01 A304 RMK A01 T00041007  RH  092%=      5-min Rain = 0
KCH1 141546Z 13009KT 00/M01 A304 RMK A01 T00041008  RH  091%=      5-min Rain = 0
KCH1 141547Z 13009KT 00/M01 A304 RMK A01 T00041009  RH  091%=      5-min Rain = 0
KCH1 141548Z 13007KT 00/M01 A304 RMK A01 T00041010  RH  090%=      5-min Rain = 0
KCH1 141549Z 13008KT 00/M01 A304 RMK A01 T00041010  RH  091%=      5-min Rain = 0
KCH1 141550Z 14007KT 01/M01 A304 RMK A01 T00051009  RH  091%=      5-min Rain = 0
KCH1 141551Z 14008KT 01/M01 A304 RMK A01 T00061007  RH  091%=      5-min Rain = 0
KCH1 141552Z 14011KT 01/M01 A304 RMK A01 T00061009  RH  090%=      5-min Rain = 0
KCH1 141553Z 14013KT 01/M01 A304 RMK A01 T00061010  RH  089%=      5-min Rain = 0
KCH1 141554Z 13010KT 01/M01 A304 RMK A01 T00051010  RH  089%=      5-min Rain = 0
KCH1 141555Z 14011KT 01/M01 A304 RMK A01 T00051011  RH  089%=      5-min Rain = 0
KCH1 141556Z 14008KT 01/M01 A304 RMK A01 T00051011  RH  089%=      5-min Rain = 0
KCH1 141557Z 14010KT 01/M01 A304 RMK A01 T00051011  RH  089%=      5-min Rain = 0
KCH1 141558Z 14011KT 00/M01 A304 RMK A01 T00041012  RH  089%=      5-min Rain = 0
KCH1 141559Z 14011KT 01/M01 A304 RMK A01 T00051011  RH  089%=      5-min Rain = 0
KCH1 141600Z 15009KT 00/M01 A304 RMK A01 T00041011  RH  089%=      5-min Rain = 0
KCH1 141601Z 15010KT 01/M01 A304 RMK A01 T00051010  RH  090%=      5-min Rain = 0
KCH1 141602Z 14011KT 01/M01 A304 RMK A01 T00061010  RH  090%=      5-min Rain = 0
KCH1 141603Z 13011KT 01/M01 A304 RMK A01 T00051012  RH  088%=      5-min Rain = 0
KCH1 141604Z 13010KT 00/M01 A304 RMK A01 T00041013  RH  088%=      5-min Rain = 0
KCH1 141605Z 12010KT 00/M01 A304 RMK A01 T00041012  RH  089%=      5-min Rain = 0
KCH1 141606Z 13009KT 01/M01 A304 RMK A01 T00051011  RH  089%=      5-min Rain = 0
KCH1 141607Z 13009KT 01/M01 A304 RMK A01 T00061010  RH  089%=      5-min Rain = 0
KCH1 141608Z 12009KT 01/M01 A304 RMK A01 T00071009  RH  089%=      5-min Rain = 0
KCH1 141609Z 14009KT 01/M01 A304 RMK A01 T00091006  RH  089%=      5-min Rain = 0
KCH1 141610Z 14009KT 01/M01 A304 RMK A01 T00111006  RH  089%=      5-min Rain = 0
KCH1 141611Z 14009KT 01/M01 A304 RMK A01 T00101009  RH  087%=      5-min Rain = 0
KCH1 141612Z 15009KT 01/M01 A304 RMK A01 T00091009  RH  087%=      5-min Rain = 0
KCH1 141613Z 15008KT 01/M01 A304 RMK A01 T00091009  RH  088%=      5-min Rain = 0
KCH1 141614Z 15009KT 01/M01 A304 RMK A01 T00091009  RH  087%=      5-min Rain = 0
KCH1 141615Z 14008KT 01/M01 A304 RMK A01 T00111009  RH  087%=      5-min Rain = 0
KCH1 141616Z 14010KT 01/M01 A304 RMK A01 T00121008  RH  087%=      5-min Rain = 0
KCH1 141617Z 13010KT 01/M01 A304 RMK A01 T00111011  RH  085%=      5-min Rain = 0
KCH1 141618Z 15009KT 01/M01 A304 RMK A01 T00081014  RH  085%=      5-min Rain = 0
KCH1 141619Z 15009KT 01/M01 A304 RMK A01 T00081013  RH  086%=      5-min Rain = 0
KCH1 141620Z 12009KT 01/M01 A304 RMK A01 T00081011  RH  087%=      5-min Rain = 0
KCH1 141621Z 13009KT 01/M01 A304 RMK A01 T00091010  RH  087%=      5-min Rain = 0
KCH1 141622Z 13009KT 01/M01 A304 RMK A01 T00091012  RH  086%=      5-min Rain = 0
KCH1 141623Z 13006KT 01/M01 A304 RMK A01 T00081014  RH  085%=      5-min Rain = 0
KCH1 141624Z 15007KT 01/M01 A304 RMK A01 T00081011  RH  087%=      5-min Rain = 0
KCH1 141625Z 16008KT 01/M01 A304 RMK A01 T00101007  RH  088%=      5-min Rain = 0
KCH1 141626Z 15007KT 01/M01 A304 RMK A01 T00111009  RH  087%=      5-min Rain = 0
KCH1 141627Z 14007KT 01/M01 A304 RMK A01 T00111009  RH  086%=      5-min Rain = 0
KCH1 141628Z 13008KT 01/M01 A304 RMK A01 T00121009  RH  086%=      5-min Rain = 0
KCH1 141629Z 13008KT 01/M01 A304 RMK A01 T00111011  RH  085%=      5-min Rain = 0
KCH1 141630Z 13009KT 01/M01 A304 RMK A01 T00111012  RH  085%=      5-min Rain = 0
KCH1 141631Z 14007KT 01/M01 A304 RMK A01 T00101014  RH  084%=      5-min Rain = 0
KCH1 141632Z 12006KT 01/M01 A304 RMK A01 T00101011  RH  086%=      5-min Rain = 0
KCH1 141633Z 12006KT 01/M00 A304 RMK A01 T00141004  RH  088%=      5-min Rain = 0
KCH1 141634Z 15007KT 02/M00 A304 RMK A01 T00181002  RH  087%=      5-min Rain = 0
KCH1 141635Z 16009KT 02/M01 A304 RMK A01 T00181007  RH  083%=      5-min Rain = 0
KCH1 141636Z 15007KT 02/M01 A304 RMK A01 T00151013  RH  082%=      5-min Rain = 0
KCH1 141637Z 15007KT 01/M01 A304 RMK A01 T00131013  RH  083%=      5-min Rain = 0
KCH1 141638Z 14008KT 01/M01 A304 RMK A01 T00121012  RH  084%=      5-min Rain = 0
KCH1 141639Z 12005KT 02/M01 A304 RMK A01 T00151005  RH  086%=      5-min Rain = 0
KCH1 141640Z 13008KT 02/00 A304 RMK A01 T002100-0  RH  086%=      5-min Rain = 0
KCH1 141641Z 12008KT 02/M01 A304 RMK A01 T00211006  RH  082%=      5-min Rain = 0
KCH1 141642Z 16011KT 02/M01 A304 RMK A01 T00211007  RH  082%=      5-min Rain = 0
KCH1 141643Z 16010KT 02/M01 A304 RMK A01 T00191013  RH  079%=      5-min Rain = 0
KCH1 141644Z 16008KT 02/M02 A304 RMK A01 T00161015  RH  080%=      5-min Rain = 0
KCH1 141645Z 15006KT 01/M02 A304 RMK A01 T00141016  RH  081%=      5-min Rain = 0
KCH1 141646Z 12007KT 01/M01 A304 RMK A01 T00131014  RH  082%=      5-min Rain = 0
KCH1 141647Z 14007KT 01/M01 A304 RMK A01 T00141012  RH  083%=      5-min Rain = 0
KCH1 141648Z 11006KT 02/M01 A304 RMK A01 T00151012  RH  083%=      5-min Rain = 0
KCH1 141649Z 11005KT 02/M01 A304 RMK A01 T00151012  RH  082%=      5-min Rain = 0
KCH1 141650Z 12006KT 02/M01 A304 RMK A01 T00181008  RH  083%=      5-min Rain = 0
KCH1 141651Z 11009KT 02/M01 A304 RMK A01 T00221005  RH  083%=      5-min Rain = 0
KCH1 141652Z 13008KT 02/M01 A304 RMK A01 T00241006  RH  081%=      5-min Rain = 0
KCH1 141653Z 14008KT 02/M01 A304 RMK A01 T00241008  RH  079%=      5-min Rain = 0
KCH1 141654Z 16007KT 02/M01 A304 RMK A01 T00231010  RH  079%=      5-min Rain = 0
KCH1 141655Z 17007KT 02/M01 A304 RMK A01 T00241006  RH  080%=      5-min Rain = 0
KCH1 141656Z 16009KT 03/M01 A304 RMK A01 T00251011  RH  077%=      5-min Rain = 0
KCH1 141657Z 14010KT 02/M01 A304 RMK A01 T00231013  RH  077%=      5-min Rain = 0
KCH1 141658Z 14008KT 02/M01 A304 RMK A01 T00221013  RH  077%=      5-min Rain = 0
KCH1 141659Z 14007KT 02/M01 A304 RMK A01 T00221012  RH  078%=      5-min Rain = 0
KCH1 141700Z 14006KT 02/M01 A304 RMK A01 T00221012  RH  078%=      5-min Rain = 0
KCH1 141701Z 13006KT 02/M01 A304 RMK A01 T00241007  RH  080%=      5-min Rain = 0
KCH1 141702Z 12005KT 03/M01 A304 RMK A01 T00261008  RH  078%=      5-min Rain = 0
KCH1 141703Z 13006KT 03/M01 A304 RMK A01 T00271006  RH  079%=      5-min Rain = 0
KCH1 141704Z 14008KT 03/M01 A304 RMK A01 T00291007  RH  077%=      5-min Rain = 0
KCH1 141705Z 15007KT 03/M01 A304 RMK A01 T00261012  RH  076%=      5-min Rain = 0
KCH1 141706Z 15007KT 02/M01 A304 RMK A01 T00231011  RH  078%=      5-min Rain = 0
KCH1 141707Z 15006KT 02/M01 A304 RMK A01 T00231011  RH  078%=      5-min Rain = 0
KCH1 141708Z 16005KT 02/M01 A3039 RMK A01 T00221012  RH  078%=      5-min Rain = 0
KCH1 141709Z 13006KT 02/M01 A3039 RMK A01 T00221010  RH  079%=      5-min Rain = 0
KCH1 141710Z 12006KT 03/M01 A3039 RMK A01 T00251007  RH  079%=      5-min Rain = 0
KCH1 141711Z 14005KT 03/M01 A3039 RMK A01 T00271007  RH  078%=      5-min Rain = 0
KCH1 141712Z 13009KT 03/M01 A3039 RMK A01 T00291009  RH  076%=      5-min Rain = 0
KCH1 141713Z 14010KT 03/M01 A3039 RMK A01 T00301009  RH  075%=      5-min Rain = 0
KCH1 141714Z 13008KT 03/M01 A3039 RMK A01 T00291012  RH  075%=      5-min Rain = 0
KCH1 141715Z 13006KT 03/M01 A3039 RMK A01 T00271011  RH  076%=      5-min Rain = 0
KCH1 141716Z 13007KT 03/M01 A3039 RMK A01 T00271011  RH  076%=      5-min Rain = 0
KCH1 141717Z 14005KT 03/M01 A3039 RMK A01 T00251014  RH  075%=      5-min Rain = 0
KCH1 141718Z 14006KT 02/M01 A3039 RMK A01 T00241011  RH  078%=      5-min Rain = 0
KCH1 141719Z 12005KT 03/M01 A3039 RMK A01 T00271009  RH  077%=      5-min Rain = 0
KCH1 141720Z 11004KT 03/M01 A3039 RMK A01 T00271011  RH  076%=      5-min Rain = 0
KCH1 141721Z 15003KT 03/M01 A3038 RMK A01 T00281010  RH  076%=      5-min Rain = 0
KCH1 141722Z 13005KT 03/M01 A3038 RMK A01 T00301007  RH  077%=      5-min Rain = 0
KCH1 141723Z 13007KT 03/M01 A3038 RMK A01 T00321008  RH  075%=      5-min Rain = 0
KCH1 141724Z 11007KT 03/M01 A3038 RMK A01 T00331008  RH  074%=      5-min Rain = 0
KCH1 141725Z 10008KT 03/M01 A3038 RMK A01 T00341009  RH  074%=      5-min Rain = 0
KCH1 141726Z 11008KT 03/M01 A3038 RMK A01 T00331010  RH  073%=      5-min Rain = 0
KCH1 141727Z 13009KT 03/M01 A3038 RMK A01 T00341008  RH  074%=      5-min Rain = 0
KCH1 141728Z 13008KT 03/M01 A3038 RMK A01 T00341009  RH  073%=      5-min Rain = 0
KCH1 141729Z 14006KT 03/M01 A3038 RMK A01 T00331011  RH  073%=      5-min Rain = 0
KCH1 141730Z 13004KT 03/M01 A3038 RMK A01 T00311012  RH  073%=      5-min Rain = 0
KCH1 141731Z 12008KT 03/M01 A3038 RMK A01 T00321007  RH  075%=      5-min Rain = 0
KCH1 141732Z 14009KT 04/M01 A3038 RMK A01 T00361006  RH  074%=      5-min Rain = 0
KCH1 141733Z 15010KT 04/M01 A3038 RMK A01 T00381008  RH  072%=      5-min Rain = 0
KCH1 141734Z 16007KT 04/M01 A3038 RMK A01 T00381008  RH  072%=      5-min Rain = 0
KCH1 141735Z 17009KT 04/M01 A3038 RMK A01 T00381009  RH  072%=      5-min Rain = 0
KCH1 141736Z 15008KT 04/M01 A3038 RMK A01 T00381008  RH  072%=      5-min Rain = 0
KCH1 141737Z 15007KT 04/M01 A3038 RMK A01 T00391009  RH  071%=      5-min Rain = 0
KCH1 141738Z 15009KT 04/M01 A3038 RMK A01 T00401010  RH  070%=      5-min Rain = 0
KCH1 141739Z 16008KT 04/M01 A3037 RMK A01 T00411010  RH  069%=      5-min Rain = 0
KCH1 141740Z 17008KT 04/M01 A3037 RMK A01 T00431008  RH  069%=      5-min Rain = 0
KCH1 141741Z 18008KT 04/M01 A3037 RMK A01 T00441008  RH  069%=      5-min Rain = 0
KCH1 141742Z 18006KT 04/M01 A3037 RMK A01 T00411010  RH  069%=      5-min Rain = 0
KCH1 141743Z 13007KT 04/M01 A3037 RMK A01 T00421005  RH  071%=      5-min Rain = 0
KCH1 141744Z 12010KT 05/M01 A3037 RMK A01 T00451006  RH  069%=      5-min Rain = 0
KCH1 141745Z 11009KT 04/M01 A3037 RMK A01 T00431010  RH  068%=      5-min Rain = 0
KCH1 141746Z 11006KT 04/M01 A3037 RMK A01 T00401011  RH  069%=      5-min Rain = 0
KCH1 141747Z 11005G10KT 04/M01 A3037 RMK A01 T00411009  RH  070%=      5-min Rain = 0
KCH1 141748Z 13009KT 04/M01 A3037 RMK A01 T00421007  RH  070%=      5-min Rain = 0
KCH1 141749Z 13010KT 04/M01 A3037 RMK A01 T00441007  RH  070%=      5-min Rain = 0
KCH1 141750Z 14008KT 04/M01 A3037 RMK A01 T00421010  RH  069%=      5-min Rain = 0
KCH1 141751Z 13007KT 04/M01 A3037 RMK A01 T00411008  RH  070%=      5-min Rain = 0
KCH1 141752Z 14007KT 04/M01 A3037 RMK A01 T00421006  RH  071%=      5-min Rain = 0
KCH1 141753Z 13005KT 04/M01 A3037 RMK A01 T00431006  RH  070%=      5-min Rain = 0
KCH1 141754Z 15008KT 05/M01 A3037 RMK A01 T00451007  RH  069%=      5-min Rain = 0
KCH1 141755Z 16008KT 05/M01 A3036 RMK A01 T00451010  RH  067%=      5-min Rain = 0
KCH1 141756Z 18008KT 05/M01 A3036 RMK A01 T00471010  RH  066%=      5-min Rain = 0
KCH1 141757Z 17009KT 05/M01 A3036 RMK A01 T00471011  RH  066%=      5-min Rain = 0
KCH1 141758Z 16009KT 05/M01 A3036 RMK A01 T00481007  RH  068%=      5-min Rain = 0
KCH1 141759Z 15006KT 05/M01 A3036 RMK A01 T00481008  RH  067%=      5-min Rain = 0
KCH1 141800Z 16007KT 05/M01 A3036 RMK A01 T00481008  RH  067%=      5-min Rain = 0
KCH1 141801Z 12010KT 05/M00 A3036 RMK A01 T00501003  RH  068%=      5-min Rain = 0
KCH1 141802Z 13009KT 05/M00 A3036 RMK A01 T00531004  RH  067%=      5-min Rain = 0
KCH1 141803Z 14006KT 05/M01 A3036 RMK A01 T00511009  RH  065%=      5-min Rain = 0
KCH1 141804Z 14007KT 05/M01 A3036 RMK A01 T00501005  RH  068%=      5-min Rain = 0
KCH1 141805Z 13011KT 05/M00 A3036 RMK A01 T00531004  RH  067%=      5-min Rain = 0
KCH1 141806Z 12010KT 05/M01 A3036 RMK A01 T00521007  RH  065%=      5-min Rain = 0
KCH1 141807Z 12009KT 05/M01 A3036 RMK A01 T00531006  RH  066%=      5-min Rain = 0
KCH1 141808Z 14008KT 05/M01 A3036 RMK A01 T00541005  RH  066%=      5-min Rain = 0
KCH1 141809Z 11009KT 06/M00 A3036 RMK A01 T00571002  RH  065%=      5-min Rain = 0
KCH1 141810Z 12008KT 06/M01 A3036 RMK A01 T00571005  RH  064%=      5-min Rain = 0
KCH1 141811Z 14007KT 06/M00 A3035 RMK A01 T00581002  RH  065%=      5-min Rain = 0
KCH1 141812Z 15009KT 06/M01 A3035 RMK A01 T00591005  RH  063%=      5-min Rain = 0
KCH1 141813Z 16008KT 06/M01 A3035 RMK A01 T00581006  RH  064%=      5-min Rain = 0
KCH1 141814Z 15006KT 06/M00 A3035 RMK A01 T00571004  RH  065%=      5-min Rain = 0
KCH1 141815Z 13005G11KT 06/M00 A3035 RMK A01 T00581004  RH  064%=      5-min Rain = 0
KCH1 141816Z 12009KT 06/M00 A3035 RMK A01 T00581003  RH  065%=      5-min Rain = 0
KCH1 141817Z 12010KT 06/M00 A3035 RMK A01 T00601002  RH  065%=      5-min Rain = 0
KCH1 141818Z 12007KT 06/M01 A3035 RMK A01 T00591005  RH  063%=      5-min Rain = 0
KCH1 141819Z 13005KT 06/M01 A3035 RMK A01 T00571005  RH  064%=      5-min Rain = 0
KCH1 141820Z 13005KT 06/M00 A3035 RMK A01 T00591002  RH  065%=      5-min Rain = 0
KCH1 141821Z 13007KT 06/M01 A3035 RMK A01 T00601006  RH  062%=      5-min Rain = 0
KCH1 141822Z 13012KT 06/M00 A3035 RMK A01 T00611004  RH  063%=      5-min Rain = 0
KCH1 141823Z 13009KT 06/M00 A3035 RMK A01 T00631003  RH  063%=      5-min Rain = 0
KCH1 141824Z 14008KT 06/M00 A3035 RMK A01 T00641003  RH  062%=      5-min Rain = 0
KCH1 141825Z 14007KT 07/00 A3035 RMK A01 T00660001  RH  063%=      5-min Rain = 0
KCH1 141826Z 16008KT 07/M01 A3035 RMK A01 T00651006  RH  060%=      5-min Rain = 0
KCH1 141827Z 16006KT 06/M01 A3035 RMK A01 T00631007  RH  061%=      5-min Rain = 0
KCH1 141828Z 17005KT 06/M01 A3034 RMK A01 T00611007  RH  062%=      5-min Rain = 0
KCH1 141829Z 15008KT 06/M01 A3034 RMK A01 T00611007  RH  062%=      5-min Rain = 0
KCH1 141830Z 13010KT 06/M01 A3034 RMK A01 T00621006  RH  062%=      5-min Rain = 0
KCH1 141831Z 11008KT 06/M01 A3034 RMK A01 T00621007  RH  061%=      5-min Rain = 0
KCH1 141832Z 11009KT 06/M00 A3034 RMK A01 T00631002  RH  063%=      5-min Rain = 0
KCH1 141833Z 10010KT 07/M00 A3034 RMK A01 T00651002  RH  062%=      5-min Rain = 0
KCH1 141834Z 11010KT 07/M00 A3034 RMK A01 T00651003  RH  062%=      5-min Rain = 0
KCH1 141835Z 14009KT 07/M00 A3034 RMK A01 T00651003  RH  062%=      5-min Rain = 0
KCH1 141836Z 15010KT 06/M01 A3034 RMK A01 T00641005  RH  061%=      5-min Rain = 0
KCH1 141837Z 17007KT 06/M01 A3034 RMK A01 T00631005  RH  062%=      5-min Rain = 0
KCH1 141838Z 17005KT 06/M01 A3034 RMK A01 T00621006  RH  062%=      5-min Rain = 0
KCH1 141839Z 15009G14KT 06/M00 A3034 RMK A01 T00621003  RH  063%=      5-min Rain = 0
KCH1 141840Z 15009KT 07/00 A3034 RMK A01 T00670001  RH  063%=      5-min Rain = 0
KCH1 141841Z 16007KT 07/M00 A3034 RMK A01 T00711002  RH  060%=      5-min Rain = 0
KCH1 141842Z 17009KT 07/M00 A3034 RMK A01 T00711003  RH  059%=      5-min Rain = 0
KCH1 141843Z 17010KT 07/M01 A3033 RMK A01 T00681006  RH  059%=      5-min Rain = 0
KCH1 141844Z 17006KT 07/M00 A3033 RMK A01 T00671004  RH  060%=      5-min Rain = 0
KCH1 141845Z 15008KT 07/00 A3033 RMK A01 T00690000  RH  062%=      5-min Rain = 0
KCH1 141846Z 13008KT 07/00 A3033 RMK A01 T00720000  RH  060%=      5-min Rain = 0
KCH1 141847Z 13008KT 07/00 A3033 RMK A01 T007200-0  RH  060%=      5-min Rain = 0
KCH1 141848Z 15010KT 07/00 A3033 RMK A01 T00740001  RH  060%=      5-min Rain = 0
KCH1 141849Z 15008KT 08/M00 A3033 RMK A01 T00751002  RH  058%=      5-min Rain = 0
KCH1 141850Z 14009KT 07/M00 A3033 RMK A01 T00721003  RH  059%=      5-min Rain = 0
KCH1 141851Z 14010KT 07/M00 A3033 RMK A01 T00721003  RH  059%=      5-min Rain = 0
KCH1 141852Z 14010KT 07/M00 A3033 RMK A01 T00721002  RH  059%=      5-min Rain = 0
KCH1 141853Z 16007KT 07/M00 A3033 RMK A01 T00731003  RH  058%=      5-min Rain = 0
KCH1 141854Z 15008KT 07/M00 A3033 RMK A01 T00741003  RH  058%=      5-min Rain = 0
KCH1 141855Z 14006KT 07/M00 A3033 RMK A01 T00741001  RH  059%=      5-min Rain = 0
KCH1 141856Z 15008KT 07/M00 A3032 RMK A01 T00741001  RH  059%=      5-min Rain = 0
KCH1 141857Z 17007KT 08/00 A3032 RMK A01 T00750002  RH  060%=      5-min Rain = 0
KCH1 141858Z 16010KT 08/00 A3032 RMK A01 T00780002  RH  058%=      5-min Rain = 0
KCH1 141859Z 17009KT 08/M00 A3032 RMK A01 T00771004  RH  057%=      5-min Rain = 0
KCH1 141900Z 17007KT 07/M01 A3032 RMK A01 T00741005  RH  057%=      5-min Rain = 0
KCH1 141901Z 15009KT 07/M00 A3032 RMK A01 T00741004  RH  058%=      5-min Rain = 0
KCH1 141902Z 17007KT 08/M01 A3032 RMK A01 T00751006  RH  056%=      5-min Rain = 0
KCH1 141903Z 18009KT 07/M01 A3032 RMK A01 T00741006  RH  057%=      5-min Rain = 0
KCH1 141904Z 17009KT 07/M01 A3032 RMK A01 T00741007  RH  057%=      5-min Rain = 0
KCH1 141905Z 14009KT 07/M00 A3032 RMK A01 T00731003  RH  058%=      5-min Rain = 0
KCH1 141906Z 15009KT 08/M00 A3032 RMK A01 T00771001  RH  058%=      5-min Rain = 0
KCH1 141907Z 16008KT 08/M00 A3032 RMK A01 T00801002  RH  056%=      5-min Rain = 0
KCH1 141908Z 15008KT 08/M00 A3032 RMK A01 T00801001  RH  056%=      5-min Rain = 0
KCH1 141909Z 15007KT 08/M01 A3032 RMK A01 T00801005  RH  055%=      5-min Rain = 0
KCH1 141910Z 16006KT 08/M00 A3032 RMK A01 T00801001  RH  057%=      5-min Rain = 0
KCH1 141911Z 15011KT 08/00 A3032 RMK A01 T00830003  RH  057%=      5-min Rain = 0
KCH1 141912Z 17010KT 08/M00 A3032 RMK A01 T00831002  RH  055%=      5-min Rain = 0
KCH1 141913Z 15008KT 08/M00 A3032 RMK A01 T00791004  RH  056%=      5-min Rain = 0
KCH1 141914Z 13009KT 08/M00 A3032 RMK A01 T00771004  RH  057%=      5-min Rain = 0
KCH1 141915Z 13011KT 08/M01 A3032 RMK A01 T00751005  RH  057%=      5-min Rain = 0
KCH1 141916Z 14009KT 08/M01 A3032 RMK A01 T00751005  RH  057%=      5-min Rain = 0
KCH1 141917Z 16009KT 08/M00 A3032 RMK A01 T00791001  RH  057%=      5-min Rain = 0
KCH1 141918Z 15008KT 08/M00 A3032 RMK A01 T00811001  RH  056%=      5-min Rain = 0
KCH1 141919Z 15008KT 08/00 A3031 RMK A01 T00830002  RH  057%=      5-min Rain = 0
KCH1 141920Z 15013KT 09/00 A3031 RMK A01 T00850000  RH  055%=      5-min Rain = 0
KCH1 141921Z 15013KT 08/M01 A3031 RMK A01 T00841005  RH  053%=      5-min Rain = 0
KCH1 141922Z 17009KT 08/M01 A3031 RMK A01 T00821006  RH  054%=      5-min Rain = 0
KCH1 141923Z 15009KT 08/M01 A3032 RMK A01 T00811007  RH  054%=      5-min Rain = 0
KCH1 141924Z 19008G13KT 08/M01 A3032 RMK A01 T00801006  RH  054%=      5-min Rain = 0
KCH1 141925Z 20008KT 08/M01 A3031 RMK A01 T00801009  RH  054%=      5-min Rain = 0
KCH1 141926Z 17008KT 08/M01 A3031 RMK A01 T00781010  RH  054%=      5-min Rain = 0
KCH1 141927Z 14010KT 08/M01 A3032 RMK A01 T00781008  RH  054%=      5-min Rain = 0
KCH1 141928Z 15009KT 08/M01 A3031 RMK A01 T00811008  RH  053%=      5-min Rain = 0
KCH1 141929Z 16012KT 08/M01 A3031 RMK A01 T00821009  RH  053%=      5-min Rain = 0
KCH1 141930Z 15008KT 08/M01 A3031 RMK A01 T00811010  RH  053%=      5-min Rain = 0
KCH1 141931Z 16005KT 08/M01 A3031 RMK A01 T00801008  RH  054%=      5-min Rain = 0
KCH1 141932Z 18007KT 08/M01 A3031 RMK A01 T00801009  RH  053%=      5-min Rain = 0
KCH1 141933Z 18007KT 08/M01 A3031 RMK A01 T00791008  RH  054%=      5-min Rain = 0
KCH1 141934Z 15010KT 08/M00 A3031 RMK A01 T00801004  RH  055%=      5-min Rain = 0
KCH1 141935Z 14010KT 08/M00 A3031 RMK A01 T00821004  RH  055%=      5-min Rain = 0
KCH1 141936Z 14011KT 08/M00 A3031 RMK A01 T00821004  RH  054%=      5-min Rain = 0
KCH1 141937Z 15009KT 08/M00 A3031 RMK A01 T00831001  RH  056%=      5-min Rain = 0
KCH1 141938Z 15009KT 09/00 A3031 RMK A01 T00870002  RH  055%=      5-min Rain = 0
KCH1 141939Z 17010G15KT 09/M00 A3031 RMK A01 T00871004  RH  053%=      5-min Rain = 0
KCH1 141940Z 16010KT 08/M00 A3031 RMK A01 T00841004  RH  054%=      5-min Rain = 0
KCH1 141941Z 16012KT 08/M01 A3031 RMK A01 T00821006  RH  054%=      5-min Rain = 0
KCH1 141942Z 17011KT 08/M01 A3031 RMK A01 T00811006  RH  054%=      5-min Rain = 0
KCH1 141943Z 16010KT 08/M01 A3031 RMK A01 T00791007  RH  055%=      5-min Rain = 0
KCH1 141944Z 16004KT 08/M00 A3031 RMK A01 T00791004  RH  056%=      5-min Rain = 0
KCH1 141945Z 22001KT 08/M00 A303 RMK A01 T00801004  RH  055%=      5-min Rain = 0
KCH1 141946Z 15003G12KT 08/M00 A303 RMK A01 T00821004  RH  055%=      5-min Rain = 0
KCH1 141947Z 16010KT 08/M00 A303 RMK A01 T00831001  RH  055%=      5-min Rain = 0
KCH1 141948Z 16010KT 09/M00 A303 RMK A01 T00851001  RH  055%=      5-min Rain = 0
KCH1 141949Z 15009KT 09/00 A303 RMK A01 T008600-0  RH  055%=      5-min Rain = 0
KCH1 141950Z 15007KT 09/00 A303 RMK A01 T00880001  RH  054%=      5-min Rain = 0
KCH1 141951Z 14010KT 09/00 A303 RMK A01 T00910002  RH  054%=      5-min Rain = 0
KCH1 141952Z 14011KT 09/M00 A303 RMK A01 T00901002  RH  053%=      5-min Rain = 0
KCH1 141953Z 14009KT 09/00 A303 RMK A01 T00870001  RH  055%=      5-min Rain = 0
KCH1 141954Z 16009KT 09/00 A303 RMK A01 T00890002  RH  054%=      5-min Rain = 0
KCH1 141955Z 17011KT 09/00 A303 RMK A01 T00890000  RH  054%=      5-min Rain = 0
KCH1 141956Z 15009KT 09/00 A303 RMK A01 T008800-0  RH  054%=      5-min Rain = 0
KCH1 141957Z 17008KT 09/00 A303 RMK A01 T00880001  RH  054%=      5-min Rain = 0
KCH1 141958Z 18009KT 09/00 A303 RMK A01 T00890002  RH  055%=      5-min Rain = 0
KCH1 141959Z 19008KT 09/M00 A303 RMK A01 T00891001  RH  053%=      5-min Rain = 0
KCH1 142000Z 17008G13KT 09/M00 A303 RMK A01 T00871003  RH  053%=      5-min Rain = 0
KCH1 142001Z 17010KT 09/M00 A303 RMK A01 T00861003  RH  054%=      5-min Rain = 0
KCH1 142002Z 16009KT 09/M00 A303 RMK A01 T00871004  RH  053%=      5-min Rain = 0
KCH1 142003Z 14009KT 09/M00 A303 RMK A01 T00861003  RH  054%=      5-min Rain = 0
KCH1 142004Z 14006KT 09/M00 A303 RMK A01 T00851003  RH  054%=      5-min Rain = 0
KCH1 142005Z 17006KT 09/M00 A3029 RMK A01 T00861001  RH  054%=      5-min Rain = 0
KCH1 142006Z 15006KT 09/M00 A3029 RMK A01 T00871003  RH  053%=      5-min Rain = 0
KCH1 142007Z 14012KT 09/M00 A3029 RMK A01 T00881001  RH  054%=      5-min Rain = 0
KCH1 142008Z 15013KT 09/M00 A3029 RMK A01 T00891003  RH  053%=      5-min Rain = 0
KCH1 142009Z 16010KT 09/M00 A3029 RMK A01 T00891003  RH  053%=      5-min Rain = 0
KCH1 142010Z 15009KT 09/M00 A3029 RMK A01 T00891004  RH  052%=      5-min Rain = 0
KCH1 142011Z 17008KT 09/M00 A3029 RMK A01 T00891002  RH  053%=      5-min Rain = 0
KCH1 142012Z 17009KT 09/00 A3029 RMK A01 T00920001  RH  053%=      5-min Rain = 0
KCH1 142013Z 16008KT 09/00 A3029 RMK A01 T00940004  RH  053%=      5-min Rain = 0
KCH1 142014Z 18006KT 10/00 A3029 RMK A01 T00950004  RH  053%=      5-min Rain = 0
KCH1 142015Z 16006KT 09/00 A3028 RMK A01 T009400-0  RH  052%=      5-min Rain = 0
KCH1 142016Z 13007KT 09/01 A3028 RMK A01 T00940005  RH  054%=      5-min Rain = 0
KCH1 142017Z 15011KT 10/00 A3028 RMK A01 T00960003  RH  052%=      5-min Rain = 0
KCH1 142018Z 15009KT 09/M00 A3028 RMK A01 T00931001  RH  052%=      5-min Rain = 0
KCH1 142019Z 16009KT 09/00 A3028 RMK A01 T00930001  RH  053%=      5-min Rain = 0
KCH1 142020Z 15008KT 09/M00 A3028 RMK A01 T00921001  RH  052%=      5-min Rain = 0
KCH1 142021Z 15009KT 09/M00 A3028 RMK A01 T00911001  RH  053%=      5-min Rain = 0
KCH1 142022Z 14007KT 09/M00 A3028 RMK A01 T00911001  RH  053%=      5-min Rain = 0
KCH1 142023Z 14006KT 09/00 A3028 RMK A01 T00920003  RH  054%=      5-min Rain = 0
KCH1 142024Z 14007KT 10/00 A3028 RMK A01 T00950002  RH  052%=      5-min Rain = 0
KCH1 142025Z 15009KT 10/00 A3028 RMK A01 T00950003  RH  053%=      5-min Rain = 0
KCH1 142026Z 16007KT 10/00 A3028 RMK A01 T00950001  RH  052%=      5-min Rain = 0
KCH1 142027Z 15011KT 10/00 A3028 RMK A01 T00960002  RH  052%=      5-min Rain = 0
KCH1 142028Z 14010KT 10/00 A3028 RMK A01 T009600-0  RH  051%=      5-min Rain = 0
KCH1 142029Z 15008KT 10/00 A3028 RMK A01 T00960002  RH  052%=      5-min Rain = 0
KCH1 142030Z 17008KT 10/00 A3027 RMK A01 T00970003  RH  052%=      5-min Rain = 0
KCH1 142031Z 17010KT 10/00 A3027 RMK A01 T00990001  RH  051%=      5-min Rain = 0
KCH1 142032Z 18007KT 10/M00 A3027 RMK A01 T00981003  RH  050%=      5-min Rain = 0
KCH1 142033Z 17008KT 10/M00 A3027 RMK A01 T00951001  RH  051%=      5-min Rain = 0
KCH1 142034Z 16006G12KT 10/00 A3027 RMK A01 T00960001  RH  052%=      5-min Rain = 0
KCH1 142035Z 15009KT 10/01 A3027 RMK A01 T01000006  RH  052%=      5-min Rain = 0
KCH1 142036Z 17007KT 10/00 A3027 RMK A01 T01020004  RH  051%=      5-min Rain = 0
KCH1 142037Z 17009KT 10/00 A3027 RMK A01 T01010003  RH  051%=      5-min Rain = 0
KCH1 142038Z 16009KT 10/00 A3027 RMK A01 T00990000  RH  050%=      5-min Rain = 0
KCH1 142039Z 15010KT 10/M00 A3027 RMK A01 T00971001  RH  051%=      5-min Rain = 0
KCH1 142040Z 14010KT 10/00 A3027 RMK A01 T00960001  RH  051%=      5-min Rain = 0
KCH1 142041Z 15011KT 10/00 A3027 RMK A01 T00990004  RH  052%=      5-min Rain = 0
KCH1 142042Z 15010KT 10/00 A3027 RMK A01 T00990001  RH  050%=      5-min Rain = 0
KCH1 142043Z 15010KT 10/00 A3027 RMK A01 T00980000  RH  051%=      5-min Rain = 0
KCH1 142044Z 14010KT 10/00 A3027 RMK A01 T00970001  RH  051%=      5-min Rain = 0
KCH1 142045Z 14008KT 10/00 A3027 RMK A01 T00950000  RH  052%=      5-min Rain = 0
KCH1 142046Z 16011KT 09/00 A3027 RMK A01 T00940003  RH  053%=      5-min Rain = 0
KCH1 142047Z 16008KT 10/00 A3027 RMK A01 T00950004  RH  053%=      5-min Rain = 0
KCH1 142048Z 14007KT 10/00 A3027 RMK A01 T00960002  RH  052%=      5-min Rain = 0
KCH1 142049Z 13011KT 10/01 A3027 RMK A01 T00960006  RH  053%=      5-min Rain = 0
KCH1 142050Z 15009KT 10/01 A3027 RMK A01 T00980005  RH  053%=      5-min Rain = 0
KCH1 142051Z 15011KT 10/01 A3027 RMK A01 T00990007  RH  053%=      5-min Rain = 0
KCH1 142052Z 15008KT 10/01 A3027 RMK A01 T00990007  RH  053%=      5-min Rain = 0
KCH1 142053Z 15006KT 10/01 A3027 RMK A01 T00990008  RH  053%=      5-min Rain = 0
KCH1 142054Z 14006KT 10/01 A3027 RMK A01 T01010009  RH  053%=      5-min Rain = 0
KCH1 142055Z 15008KT 10/01 A3027 RMK A01 T01030009  RH  052%=      5-min Rain = 0
KCH1 142056Z 14006KT 10/01 A3027 RMK A01 T01040005  RH  050%=      5-min Rain = 0
KCH1 142057Z 16005KT 10/01 A3027 RMK A01 T01020005  RH  051%=      5-min Rain = 0
KCH1 142058Z 14010KT 10/01 A3027 RMK A01 T01010005  RH  051%=      5-min Rain = 0
KCH1 142059Z 14008KT 10/00 A3026 RMK A01 T00990003  RH  051%=      5-min Rain = 0
KCH1 142100Z 14008KT 10/01 A3026 RMK A01 T00980005  RH  052%=      5-min Rain = 0
KCH1 142101Z 15008KT 10/01 A3026 RMK A01 T00990005  RH  052%=      5-min Rain = 0
KCH1 142102Z 16006KT 10/01 A3026 RMK A01 T00990005  RH  052%=      5-min Rain = 0
KCH1 142103Z 18007KT 10/01 A3026 RMK A01 T00990005  RH  052%=      5-min Rain = 0
KCH1 142104Z 15009KT 10/01 A3026 RMK A01 T00980006  RH  053%=      5-min Rain = 0
KCH1 142105Z 15009KT 10/01 A3026 RMK A01 T01010009  RH  053%=      5-min Rain = 0
KCH1 142106Z 15010KT 10/01 A3026 RMK A01 T01030009  RH  052%=      5-min Rain = 0
KCH1 142107Z 16011KT 10/01 A3026 RMK A01 T01030007  RH  051%=      5-min Rain = 0
KCH1 142108Z 16009KT 10/01 A3026 RMK A01 T01010005  RH  051%=      5-min Rain = 0
KCH1 142109Z 16009KT 10/01 A3026 RMK A01 T01000010  RH  053%=      5-min Rain = 0
KCH1 142110Z 15009KT 10/01 A3026 RMK A01 T01020008  RH  052%=      5-min Rain = 0
KCH1 142111Z 16009KT 10/01 A3026 RMK A01 T01010008  RH  052%=      5-min Rain = 0
KCH1 142112Z 16009KT 10/01 A3026 RMK A01 T01010008  RH  052%=      5-min Rain = 0
KCH1 142113Z 15008KT 10/01 A3026 RMK A01 T01010009  RH  053%=      5-min Rain = 0
KCH1 142114Z 14009KT 10/01 A3026 RMK A01 T01040010  RH  052%=      5-min Rain = 0
KCH1 142115Z 16010KT 11/01 A3026 RMK A01 T01050009  RH  052%=      5-min Rain = 0
KCH1 142116Z 16008KT 10/01 A3026 RMK A01 T01040007  RH  051%=      5-min Rain = 0
KCH1 142117Z 16007KT 10/01 A3026 RMK A01 T01020007  RH  052%=      5-min Rain = 0
KCH1 142118Z 15008KT 10/01 A3026 RMK A01 T01020009  RH  052%=      5-min Rain = 0
KCH1 142119Z 15009KT 10/01 A3026 RMK A01 T01030009  RH  052%=      5-min Rain = 0
KCH1 142120Z 16007KT 11/01 A3026 RMK A01 T01050012  RH  053%=      5-min Rain = 0
KCH1 142121Z 15007G12KT 11/01 A3026 RMK A01 T01060010  RH  051%=      5-min Rain = 0
KCH1 142122Z 15010KT 11/01 A3026 RMK A01 T01070010  RH  051%=      5-min Rain = 0
KCH1 142123Z 15009KT 10/01 A3026 RMK A01 T01040009  RH  051%=      5-min Rain = 0
KCH1 142124Z 13009KT 10/01 A3026 RMK A01 T01040008  RH  051%=      5-min Rain = 0
KCH1 142125Z 14009KT 10/01 A3026 RMK A01 T01030009  RH  052%=      5-min Rain = 0
KCH1 142126Z 16007KT 11/01 A3026 RMK A01 T01060014  RH  053%=      5-min Rain = 0
KCH1 142127Z 17007KT 11/01 A3026 RMK A01 T01090012  RH  051%=      5-min Rain = 0
KCH1 142128Z 17008KT 11/01 A3026 RMK A01 T01090011  RH  051%=      5-min Rain = 0
KCH1 142129Z 18006KT 11/01 A3026 RMK A01 T01080009  RH  050%=      5-min Rain = 0
KCH1 142130Z 16006KT 11/01 A3025 RMK A01 T01080011  RH  051%=      5-min Rain = 0
KCH1 142131Z 16007KT 11/01 A3025 RMK A01 T01080011  RH  051%=      5-min Rain = 0
KCH1 142132Z 15005KT 11/01 A3025 RMK A01 T01090009  RH  050%=      5-min Rain = 0
KCH1 142133Z 17007KT 11/01 A3025 RMK A01 T01070010  RH  051%=      5-min Rain = 0
KCH1 142134Z 17007KT 11/01 A3025 RMK A01 T01090012  RH  051%=      5-min Rain = 0
KCH1 142135Z 17009KT 11/01 A3025 RMK A01 T01100010  RH  050%=      5-min Rain = 0
KCH1 142136Z 16008KT 11/01 A3025 RMK A01 T01100008  RH  049%=      5-min Rain = 0
KCH1 142137Z 17007KT 11/01 A3025 RMK A01 T01090009  RH  050%=      5-min Rain = 0
KCH1 142138Z 16008G13KT 11/01 A3025 RMK A01 T01090009  RH  050%=      5-min Rain = 0
KCH1 142139Z 17007KT 11/01 A3025 RMK A01 T01100010  RH  050%=      5-min Rain = 0
KCH1 142140Z 16009KT 11/01 A3025 RMK A01 T01120013  RH  051%=      5-min Rain = 0
KCH1 142141Z 16008KT 11/01 A3025 RMK A01 T01130011  RH  050%=      5-min Rain = 0
KCH1 142142Z 14007KT 11/01 A3025 RMK A01 T01130013  RH  050%=      5-min Rain = 0
KCH1 142143Z 15007KT 11/01 A3025 RMK A01 T01140014  RH  050%=      5-min Rain = 0
KCH1 142144Z 15006KT 11/01 A3025 RMK A01 T01140012  RH  049%=      5-min Rain = 0
KCH1 142145Z 12008KT 11/01 A3025 RMK A01 T01140014  RH  050%=      5-min Rain = 0
KCH1 142146Z 12008KT 12/01 A3025 RMK A01 T01150013  RH  050%=      5-min Rain = 0
KCH1 142147Z 15005KT 11/01 A3025 RMK A01 T01130012  RH  050%=      5-min Rain = 0
KCH1 142148Z 17006KT 11/02 A3025 RMK A01 T01130015  RH  051%=      5-min Rain = 0
KCH1 142149Z 17006KT 12/01 A3025 RMK A01 T01150012  RH  049%=      5-min Rain = 0
KCH1 142150Z 16005KT 12/02 A3025 RMK A01 T01150015  RH  050%=      5-min Rain = 0
KCH1 142151Z 16005KT 12/02 A3025 RMK A01 T01160015  RH  050%=      5-min Rain = 0
KCH1 142152Z 14008KT 12/01 A3025 RMK A01 T01170014  RH  049%=      5-min Rain = 0
KCH1 142153Z 14009KT 12/01 A3025 RMK A01 T01160012  RH  049%=      5-min Rain = 0
KCH1 142154Z 15007KT 11/01 A3025 RMK A01 T01130011  RH  049%=      5-min Rain = 0
KCH1 142155Z 15007KT 11/01 A3024 RMK A01 T01120011  RH  050%=      5-min Rain = 0
KCH1 142156Z 15006KT 11/01 A3024 RMK A01 T01110012  RH  050%=      5-min Rain = 0
KCH1 142157Z 14007KT 11/01 A3024 RMK A01 T01120013  RH  050%=      5-min Rain = 0
KCH1 142158Z 14010KT 11/01 A3024 RMK A01 T01130013  RH  050%=      5-min Rain = 0
KCH1 142159Z 15006KT 11/01 A3024 RMK A01 T01130013  RH  050%=      5-min Rain = 0
KCH1 142200Z 15007KT 11/01 A3024 RMK A01 T01130013  RH  050%=      5-min Rain = 0
KCH1 142201Z 16007KT 11/01 A3024 RMK A01 T01140011  RH  049%=      5-min Rain = 0
KCH1 142202Z 17007KT 11/01 A3024 RMK A01 T01120011  RH  050%=      5-min Rain = 0
KCH1 142203Z 14008KT 11/01 A3024 RMK A01 T01110013  RH  051%=      5-min Rain = 0
KCH1 142204Z 14009KT 11/01 A3024 RMK A01 T01120012  RH  050%=      5-min Rain = 0
KCH1 142205Z 13007KT 11/01 A3024 RMK A01 T01110010  RH  050%=      5-min Rain = 0
KCH1 142206Z 13008KT 11/01 A3024 RMK A01 T01100012  RH  051%=      5-min Rain = 0
KCH1 142207Z 13006KT 11/01 A3024 RMK A01 T01110012  RH  050%=      5-min Rain = 0
KCH1 142208Z 14005KT 11/01 A3024 RMK A01 T01110012  RH  050%=      5-min Rain = 0
KCH1 142209Z 14006KT 11/01 A3024 RMK A01 T01110012  RH  051%=      5-min Rain = 0
KCH1 142210Z 15009KT 11/02 A3024 RMK A01 T01130015  RH  051%=      5-min Rain = 0
KCH1 142211Z 15009KT 12/02 A3024 RMK A01 T01160016  RH  050%=      5-min Rain = 0
KCH1 142212Z 16007KT 12/01 A3024 RMK A01 T01170012  RH  049%=      5-min Rain = 0
KCH1 142213Z 16007KT 12/01 A3024 RMK A01 T01150011  RH  049%=      5-min Rain = 0
KCH1 142214Z 14009KT 12/01 A3024 RMK A01 T01150013  RH  050%=      5-min Rain = 0
KCH1 142215Z 14009KT 12/01 A3024 RMK A01 T01150012  RH  049%=      5-min Rain = 0
KCH1 142216Z 12006KT 11/01 A3024 RMK A01 T01140011  RH  049%=      5-min Rain = 0
KCH1 142217Z 12006KT 11/01 A3024 RMK A01 T01130011  RH  049%=      5-min Rain = 0
KCH1 142218Z 13005KT 11/01 A3024 RMK A01 T01130011  RH  050%=      5-min Rain = 0
KCH1 142219Z 13006KT 11/01 A3024 RMK A01 T01120010  RH  049%=      5-min Rain = 0
KCH1 142220Z 14010KT 11/01 A3024 RMK A01 T01130011  RH  050%=      5-min Rain = 0
KCH1 142221Z 13008KT 11/01 A3024 RMK A01 T01130011  RH  050%=      5-min Rain = 0
KCH1 142222Z 16009KT 12/01 A3024 RMK A01 T01150012  RH  049%=      5-min Rain = 0
KCH1 142223Z 15009KT 12/01 A3023 RMK A01 T01160013  RH  049%=      5-min Rain = 0
KCH1 142224Z 14008KT 12/01 A3023 RMK A01 T01160012  RH  049%=      5-min Rain = 0
KCH1 142225Z 14008KT 12/01 A3023 RMK A01 T01160010  RH  048%=      5-min Rain = 0
KCH1 142226Z 13006KT 12/01 A3023 RMK A01 T01150011  RH  049%=      5-min Rain = 0
KCH1 142227Z 15006KT 12/01 A3023 RMK A01 T01160014  RH  050%=      5-min Rain = 0
KCH1 142228Z 16007KT 12/01 A3023 RMK A01 T01170011  RH  048%=      5-min Rain = 0
KCH1 142229Z 16007KT 12/01 A3023 RMK A01 T01160011  RH  048%=      5-min Rain = 0
KCH1 142230Z 16005KT 12/01 A3023 RMK A01 T01150010  RH  048%=      5-min Rain = 0
KCH1 142231Z 14004KT 12/01 A3023 RMK A01 T01150011  RH  049%=      5-min Rain = 0
KCH1 142232Z 14004KT 12/01 A3023 RMK A01 T01150012  RH  049%=      5-min Rain = 0
KCH1 142233Z 16006KT 12/01 A3023 RMK A01 T01160011  RH  049%=      5-min Rain = 0
KCH1 142234Z 16005KT 12/01 A3023 RMK A01 T01160011  RH  049%=      5-min Rain = 0
KCH1 142235Z 17004KT 12/01 A3023 RMK A01 T01160011  RH  049%=      5-min Rain = 0
KCH1 142236Z 18003KT 12/01 A3023 RMK A01 T01160012  RH  049%=      5-min Rain = 0
KCH1 142237Z 19005KT 12/01 A3023 RMK A01 T01170012  RH  049%=      5-min Rain = 0
KCH1 142238Z 16004KT 12/01 A3023 RMK A01 T01170013  RH  049%=      5-min Rain = 0
KCH1 142239Z 17005KT 12/01 A3023 RMK A01 T01190013  RH  048%=      5-min Rain = 0
KCH1 142240Z 18005KT 12/01 A3023 RMK A01 T01190011  RH  047%=      5-min Rain = 0
KCH1 142241Z 17008KT 12/01 A3023 RMK A01 T01180011  RH  048%=      5-min Rain = 0
KCH1 142242Z 17006KT 12/01 A3023 RMK A01 T01170007  RH  047%=      5-min Rain = 0
KCH1 142243Z 15005KT 12/01 A3023 RMK A01 T01160008  RH  048%=      5-min Rain = 0
KCH1 142244Z 16006KT 12/01 A3023 RMK A01 T01160008  RH  047%=      5-min Rain = 0
KCH1 142245Z 17005KT 12/01 A3023 RMK A01 T01160008  RH  047%=      5-min Rain = 0
KCH1 142246Z 14004KT 12/01 A3023 RMK A01 T01170007  RH  047%=      5-min Rain = 0
KCH1 142247Z 15005KT 12/01 A3023 RMK A01 T01160008  RH  047%=      5-min Rain = 0
KCH1 142248Z 15003KT 12/01 A3023 RMK A01 T01160008  RH  047%=      5-min Rain = 0
KCH1 142249Z 16004KT 12/01 A3023 RMK A01 T01170009  RH  047%=      5-min Rain = 0
KCH1 142250Z 14003KT 12/01 A3023 RMK A01 T01180011  RH  048%=      5-min Rain = 0
KCH1 142251Z 13006KT 12/01 A3023 RMK A01 T01180007  RH  046%=      5-min Rain = 0
KCH1 142252Z 12007KT 12/01 A3023 RMK A01 T01180010  RH  048%=      5-min Rain = 0
KCH1 142253Z 11007KT 12/01 A3023 RMK A01 T01180010  RH  047%=      5-min Rain = 0
KCH1 142254Z 12005KT 12/01 A3023 RMK A01 T01180010  RH  047%=      5-min Rain = 0
KCH1 142255Z 14005KT 12/01 A3023 RMK A01 T01180011  RH  048%=      5-min Rain = 0
KCH1 142256Z 13005KT 12/01 A3023 RMK A01 T01200011  RH  047%=      5-min Rain = 0
KCH1 142257Z 11006KT 12/01 A3023 RMK A01 T01210012  RH  047%=      5-min Rain = 0
KCH1 142258Z 12004KT 12/01 A3023 RMK A01 T01210010  RH  046%=      5-min Rain = 0
KCH1 142259Z 15004KT 12/01 A3023 RMK A01 T01200012  RH  047%=      5-min Rain = 0
KCH1 142300Z 16005KT 12/01 A3022 RMK A01 T01210010  RH  047%=      5-min Rain = 0
KCH1 142301Z 15004KT 12/01 A3022 RMK A01 T01210010  RH  047%=      5-min Rain = 0
KCH1 142302Z 15005KT 12/01 A3022 RMK A01 T01210012  RH  047%=      5-min Rain = 0
KCH1 142303Z 17006KT 12/01 A3022 RMK A01 T01210011  RH  047%=      5-min Rain = 0
KCH1 142304Z 17005KT 12/01 A3022 RMK A01 T01210011  RH  047%=      5-min Rain = 0
KCH1 142305Z 18004KT 12/01 A3022 RMK A01 T01220011  RH  047%=      5-min Rain = 0
KCH1 142306Z 17005KT 12/01 A3022 RMK A01 T01210011  RH  047%=      5-min Rain = 0
KCH1 142307Z 12003KT 12/01 A3022 RMK A01 T01210011  RH  047%=      5-min Rain = 0
KCH1 142308Z 12002KT 12/01 A3022 RMK A01 T01220010  RH  046%=      5-min Rain = 0
KCH1 142309Z 13002KT 12/01 A3022 RMK A01 T01210010  RH  046%=      5-min Rain = 0
KCH1 142310Z 14001KT 12/01 A3022 RMK A01 T01220011  RH  047%=      5-min Rain = 0
KCH1 142311Z 19002KT 12/01 A3022 RMK A01 T01230014  RH  047%=      5-min Rain = 0
KCH1 142312Z 19003KT 12/01 A3022 RMK A01 T01240012  RH  046%=      5-min Rain = 0
KCH1 142313Z 18002KT 12/01 A3022 RMK A01 T01240012  RH  046%=      5-min Rain = 0
KCH1 142314Z 18004KT 12/01 A3022 RMK A01 T01240012  RH  046%=      5-min Rain = 0
KCH1 142315Z 18003KT 12/01 A3022 RMK A01 T01230010  RH  046%=      5-min Rain = 0
KCH1 142316Z 20003KT 12/01 A3022 RMK A01 T01220010  RH  046%=      5-min Rain = 0
KCH1 142317Z 19004KT 12/01 A3022 RMK A01 T01220011  RH  047%=      5-min Rain = 0
KCH1 142318Z 17005KT 12/01 A3022 RMK A01 T01220012  RH  047%=      5-min Rain = 0
KCH1 142319Z 17004KT 12/01 A3022 RMK A01 T01220011  RH  047%=      5-min Rain = 0
KCH1 142320Z 16003KT 12/01 A3022 RMK A01 T01220011  RH  047%=      5-min Rain = 0
KCH1 142321Z 17003KT 12/01 A3022 RMK A01 T01220011  RH  047%=      5-min Rain = 0
KCH1 142322Z 16002KT 12/01 A3022 RMK A01 T01220012  RH  047%=      5-min Rain = 0
KCH1 142323Z 15001KT 12/02 A3022 RMK A01 T01230015  RH  048%=      5-min Rain = 0
KCH1 142324Z 16002KT 13/01 A3022 RMK A01 T01250014  RH  047%=      5-min Rain = 0
KCH1 142325Z 15002KT 13/01 A3022 RMK A01 T01260012  RH  046%=      5-min Rain = 0
KCH1 142326Z 13003KT 13/01 A3022 RMK A01 T01260012  RH  046%=      5-min Rain = 0
KCH1 142327Z 13002KT 13/01 A3022 RMK A01 T01260012  RH  046%=      5-min Rain = 0
KCH1 142328Z 12002KT 12/01 A3022 RMK A01 T01240011  RH  046%=      5-min Rain = 0
KCH1 142329Z 12002KT 12/01 A3022 RMK A01 T01230010  RH  046%=      5-min Rain = 0
KCH1 142330Z 12001KT 12/01 A3022 RMK A01 T01220011  RH  046%=      5-min Rain = 0
KCH1 142331Z 08001KT 12/01 A3022 RMK A01 T01220010  RH  046%=      5-min Rain = 0
KCH1 142332Z 12002KT 12/01 A3022 RMK A01 T01220011  RH  047%=      5-min Rain = 0
KCH1 142333Z 11001KT 12/01 A3022 RMK A01 T01210011  RH  047%=      5-min Rain = 0
KCH1 142334Z 13001KT 12/01 A3022 RMK A01 T01210010  RH  047%=      5-min Rain = 0
KCH1 142335Z 09000KT 12/01 A3022 RMK A01 T01220011  RH  047%=      5-min Rain = 0
KCH1 142336Z 09000KT 12/01 A3022 RMK A01 T01220010  RH  046%=      5-min Rain = 0
KCH1 142337Z 08001KT 12/01 A3022 RMK A01 T01210010  RH  046%=      5-min Rain = 0
KCH1 142338Z 07000KT 12/01 A3022 RMK A01 T01210011  RH  047%=      5-min Rain = 0
KCH1 142339Z 11000KT 12/01 A3022 RMK A01 T01210011  RH  047%=      5-min Rain = 0
KCH1 142340Z 00000KT 12/01 A3022 RMK A01 T01210012  RH  047%=      5-min Rain = 0
KCH1 142341Z 14000KT 12/01 A3022 RMK A01 T01210011  RH  047%=      5-min Rain = 0
KCH1 142342Z 17001KT 12/01 A3022 RMK A01 T01210011  RH  047%=      5-min Rain = 0
KCH1 142343Z 18001KT 12/01 A3022 RMK A01 T01220012  RH  047%=      5-min Rain = 0
KCH1 142344Z 18001KT 12/01 A3022 RMK A01 T01220011  RH  047%=      5-min Rain = 0
KCH1 142345Z 16001KT 12/01 A3022 RMK A01 T01230014  RH  047%=      5-min Rain = 0
KCH1 142346Z 14001KT 12/01 A3022 RMK A01 T01230011  RH  046%=      5-min Rain = 0
KCH1 142347Z 12000KT 12/01 A3022 RMK A01 T01230010  RH  046%=      5-min Rain = 0
KCH1 142348Z 08000KT 12/01 A3022 RMK A01 T01230010  RH  046%=      5-min Rain = 0
KCH1 142349Z 00000KT 12/01 A3022 RMK A01 T01220011  RH  047%=      5-min Rain = 0
KCH1 142350Z 11000KT 12/01 A3021 RMK A01 T01210012  RH  047%=      5-min Rain = 0
KCH1 142351Z 12001KT 12/01 A3021 RMK A01 T01210012  RH  048%=      5-min Rain = 0
KCH1 142352Z 12000KT 12/01 A3021 RMK A01 T01200012  RH  047%=      5-min Rain = 0
KCH1 142353Z 00000KT 12/01 A3021 RMK A01 T01200011  RH  047%=      5-min Rain = 0
KCH1 142354Z 15000KT 12/01 A3021 RMK A01 T01200012  RH  048%=      5-min Rain = 0
KCH1 142355Z 14000KT 12/01 A3021 RMK A01 T01200014  RH  048%=      5-min Rain = 0
KCH1 142356Z 15000KT 12/02 A3021 RMK A01 T01210015  RH  048%=      5-min Rain = 0
KCH1 142357Z 00000KT 12/01 A3021 RMK A01 T01220012  RH  047%=      5-min Rain = 0
KCH1 142358Z 00000KT 12/01 A3021 RMK A01 T01220012  RH  047%=      5-min Rain = 0
KCH1 142359Z 00000KT 12/01 A3021 RMK A01 T01230013  RH  047%=      5-min Rain = 0
KCH1 150000Z 00000KT 12/01 A3021 RMK A01 T01240013  RH  047%=      5-min Rain = 0
KCH1 150001Z 00000KT 12/01 A3021 RMK A01 T01240013  RH  046%=      5-min Rain = 0
KCH1 150002Z 00000KT 12/01 A3021 RMK A01 T01240012  RH  046%=      5-min Rain = 0
KCH1 150003Z 00000KT 12/01 A3021 RMK A01 T01230012  RH  046%=      5-min Rain = 0
KCH1 150004Z 00000KT 12/01 A3021 RMK A01 T01220012  RH  047%=      5-min Rain = 0
KCH1 150005Z 00000KT 12/01 A3021 RMK A01 T01210012  RH  047%=      5-min Rain = 0
KCH1 150006Z 00000KT 12/01 A3021 RMK A01 T01200011  RH  047%=      5-min Rain = 0
KCH1 150007Z 00000KT 12/01 A3021 RMK A01 T01190011  RH  047%=      5-min Rain = 0
KCH1 150008Z 00000KT 12/01 A3021 RMK A01 T01180011  RH  048%=      5-min Rain = 0
KCH1 150009Z 00000KT 12/01 A3021 RMK A01 T01180011  RH  048%=      5-min Rain = 0
KCH1 150010Z 00000KT 12/01 A3021 RMK A01 T01180011  RH  048%=      5-min Rain = 0
KCH1 150011Z 00000KT 12/01 A3021 RMK A01 T01170013  RH  049%=      5-min Rain = 0
KCH1 150012Z 00000KT 12/02 A3021 RMK A01 T01160016  RH  051%=      5-min Rain = 0
KCH1 150013Z 00000KT 11/02 A3021 RMK A01 T01140015  RH  050%=      5-min Rain = 0
KCH1 150014Z 00000KT 11/01 A3021 RMK A01 T01130014  RH  050%=      5-min Rain = 0
KCH1 150015Z 00000KT 11/01 A3021 RMK A01 T01120014  RH  051%=      5-min Rain = 0
KCH1 150016Z 00000KT 11/02 A3021 RMK A01 T01120016  RH  052%=      5-min Rain = 0
KCH1 150017Z 00000KT 11/02 A3021 RMK A01 T01110018  RH  053%=      5-min Rain = 0
KCH1 150018Z 00000KT 11/02 A3021 RMK A01 T01110017  RH  052%=      5-min Rain = 0
KCH1 150019Z 00000KT 11/02 A3021 RMK A01 T01100017  RH  052%=      5-min Rain = 0
KCH1 150020Z 21000KT 11/02 A3021 RMK A01 T01100018  RH  053%=      5-min Rain = 0
KCH1 150021Z 21001KT 11/02 A3021 RMK A01 T01100019  RH  054%=      5-min Rain = 0
KCH1 150022Z 20001KT 11/02 A3021 RMK A01 T01100020  RH  054%=      5-min Rain = 0
KCH1 150023Z 19001KT 11/02 A3021 RMK A01 T01090018  RH  053%=      5-min Rain = 0
KCH1 150024Z 18001KT 11/02 A3021 RMK A01 T01090016  RH  053%=      5-min Rain = 0
KCH1 150025Z 17001KT 11/02 A3021 RMK A01 T01090015  RH  052%=      5-min Rain = 0
KCH1 150026Z 15001KT 11/01 A3021 RMK A01 T01080013  RH  052%=      5-min Rain = 0
KCH1 150027Z 16002KT 11/01 A3021 RMK A01 T01080012  RH  051%=      5-min Rain = 0
KCH1 150028Z 15001KT 11/01 A3021 RMK A01 T01080012  RH  051%=      5-min Rain = 0
KCH1 150029Z 13002KT 11/01 A3021 RMK A01 T01080012  RH  051%=      5-min Rain = 0
KCH1 150030Z 13002KT 11/01 A3021 RMK A01 T01080012  RH  051%=      5-min Rain = 0
KCH1 150031Z 13003KT 11/01 A3021 RMK A01 T01080013  RH  052%=      5-min Rain = 0
KCH1 150032Z 13003KT 11/01 A3021 RMK A01 T01090014  RH  052%=      5-min Rain = 0
KCH1 150033Z 12003KT 11/01 A3021 RMK A01 T01080014  RH  052%=      5-min Rain = 0
KCH1 150034Z 11003KT 11/02 A3021 RMK A01 T01060016  RH  054%=      5-min Rain = 0
KCH1 150035Z 11003KT 10/02 A3021 RMK A01 T01010016  RH  055%=      5-min Rain = 0
KCH1 150036Z 09003KT 10/02 A3021 RMK A01 T00960015  RH  057%=      5-min Rain = 0
KCH1 150037Z 08004KT 09/01 A3021 RMK A01 T00930014  RH  058%=      5-min Rain = 0
KCH1 150038Z 09004KT 09/02 A3021 RMK A01 T00890015  RH  060%=      5-min Rain = 0
KCH1 150039Z 10004KT 09/02 A302 RMK A01 T00860016  RH  061%=      5-min Rain = 0
KCH1 150040Z 11005KT 09/02 A302 RMK A01 T00850015  RH  061%=      5-min Rain = 0
KCH1 150041Z 11005KT 09/02 A302 RMK A01 T00850015  RH  061%=      5-min Rain = 0
KCH1 150042Z 11005KT 09/02 A302 RMK A01 T00850015  RH  061%=      5-min Rain = 0
KCH1 150043Z 11005KT 09/02 A302 RMK A01 T00850015  RH  062%=      5-min Rain = 0
KCH1 150044Z 12006KT 09/02 A302 RMK A01 T00850016  RH  062%=      5-min Rain = 0
KCH1 150045Z 11006KT 09/02 A302 RMK A01 T00860016  RH  061%=      5-min Rain = 0
KCH1 150046Z 11005KT 09/02 A302 RMK A01 T00860016  RH  061%=      5-min Rain = 0
KCH1 150047Z 11005KT 09/02 A302 RMK A01 T00860016  RH  061%=      5-min Rain = 0
KCH1 150048Z 11005KT 09/02 A302 RMK A01 T00860017  RH  062%=      5-min Rain = 0
KCH1 150049Z 10005KT 09/02 A302 RMK A01 T00860017  RH  062%=      5-min Rain = 0
KCH1 150050Z 11006KT 09/02 A302 RMK A01 T00850017  RH  062%=      5-min Rain = 0
KCH1 150051Z 10005KT 09/02 A302 RMK A01 T00850017  RH  062%=      5-min Rain = 0
KCH1 150052Z 10005KT 09/02 A302 RMK A01 T00850017  RH  062%=      5-min Rain = 0
KCH1 150053Z 10006KT 09/02 A302 RMK A01 T00850017  RH  062%=      5-min Rain = 0
KCH1 150054Z 11006KT 09/02 A302 RMK A01 T00850017  RH  062%=      5-min Rain = 0
KCH1 150055Z 11006KT 09/02 A302 RMK A01 T00850017  RH  062%=      5-min Rain = 0
KCH1 150056Z 11006KT 09/02 A302 RMK A01 T00850016  RH  062%=      5-min Rain = 0
KCH1 150057Z 11006KT 09/02 A302 RMK A01 T00850017  RH  062%=      5-min Rain = 0
KCH1 150058Z 11007KT 09/02 A302 RMK A01 T00850017  RH  062%=      5-min Rain = 0
KCH1 150059Z 11007KT 09/02 A302 RMK A01 T00860018  RH  062%=      5-min Rain = 0
KCH1 150100Z 12007KT 09/02 A3021 RMK A01 T00860018  RH  062%=      5-min Rain = 0
KCH1 150101Z 12007KT 09/02 A3021 RMK A01 T00870019  RH  062%=      5-min Rain = 0
KCH1 150102Z 12007KT 09/02 A3021 RMK A01 T00870018  RH  062%=      5-min Rain = 0
KCH1 150103Z 12008KT 09/02 A3021 RMK A01 T00880018  RH  061%=      5-min Rain = 0
KCH1 150104Z 13006KT 09/02 A3021 RMK A01 T00890018  RH  061%=      5-min Rain = 0
KCH1 150105Z 13006KT 09/02 A3021 RMK A01 T00890019  RH  061%=      5-min Rain = 0
KCH1 150106Z 13006KT 09/02 A3021 RMK A01 T00880018  RH  061%=      5-min Rain = 0
KCH1 150107Z 13006KT 09/02 A3021 RMK A01 T00880018  RH  061%=      5-min Rain = 0
KCH1 150108Z 13006KT 09/02 A3021 RMK A01 T00880017  RH  061%=      5-min Rain = 0
KCH1 150109Z 13006KT 09/02 A3021 RMK A01 T00890018  RH  061%=      5-min Rain = 0
KCH1 150110Z 13005KT 09/02 A3021 RMK A01 T00880018  RH  061%=      5-min Rain = 0
KCH1 150111Z 13005KT 09/02 A3021 RMK A01 T00880018  RH  061%=      5-min Rain = 0
KCH1 150112Z 14005KT 09/02 A3021 RMK A01 T00870018  RH  062%=      5-min Rain = 0
KCH1 150113Z 13006KT 09/02 A3021 RMK A01 T00860018  RH  062%=      5-min Rain = 0
KCH1 150114Z 13006KT 09/02 A3021 RMK A01 T00870018  RH  062%=      5-min Rain = 0
KCH1 150115Z 13006KT 09/02 A3021 RMK A01 T00860018  RH  062%=      5-min Rain = 0
KCH1 150116Z 13006KT 09/02 A3021 RMK A01 T00860018  RH  062%=      5-min Rain = 0
KCH1 150117Z 13007KT 09/02 A3021 RMK A01 T00850018  RH  063%=      5-min Rain = 0
KCH1 150118Z 13006KT 09/02 A3021 RMK A01 T00850018  RH  063%=      5-min Rain = 0
KCH1 150119Z 13006KT 09/02 A3021 RMK A01 T00850018  RH  063%=      5-min Rain = 0
KCH1 150120Z 14007KT 08/02 A3021 RMK A01 T00840018  RH  063%=      5-min Rain = 0
KCH1 150121Z 14007KT 08/02 A3021 RMK A01 T00840018  RH  063%=      5-min Rain = 0
KCH1 150122Z 13007KT 09/02 A3021 RMK A01 T00850018  RH  063%=      5-min Rain = 0
KCH1 150123Z 14007KT 09/02 A3021 RMK A01 T00850018  RH  063%=      5-min Rain = 0
KCH1 150124Z 14007KT 09/02 A3021 RMK A01 T00850018  RH  063%=      5-min Rain = 0
KCH1 150125Z 14007KT 09/02 A3021 RMK A01 T00850018  RH  063%=      5-min Rain = 0
KCH1 150126Z 14007KT 09/02 A3021 RMK A01 T00850018  RH  063%=      5-min Rain = 0
KCH1 150127Z 14006KT 09/02 A3021 RMK A01 T00850018  RH  063%=      5-min Rain = 0
KCH1 150128Z 14006KT 09/02 A3021 RMK A01 T00850018  RH  063%=      5-min Rain = 0
KCH1 150129Z 14007KT 08/02 A3021 RMK A01 T00840018  RH  063%=      5-min Rain = 0
KCH1 150130Z 14008KT 08/02 A3021 RMK A01 T00840018  RH  063%=      5-min Rain = 0
KCH1 150131Z 14007KT 08/02 A3021 RMK A01 T00840017  RH  063%=      5-min Rain = 0
KCH1 150132Z 14007KT 09/02 A3021 RMK A01 T00850017  RH  063%=      5-min Rain = 0
KCH1 150133Z 14005KT 09/02 A3021 RMK A01 T00850017  RH  062%=      5-min Rain = 0
KCH1 150134Z 14006KT 08/02 A3021 RMK A01 T00840018  RH  063%=      5-min Rain = 0
KCH1 150135Z 14007KT 08/02 A3021 RMK A01 T00840017  RH  063%=      5-min Rain = 0
KCH1 150136Z 14006KT 08/02 A3021 RMK A01 T00840017  RH  063%=      5-min Rain = 0
KCH1 150137Z 14006KT 08/02 A3021 RMK A01 T00840017  RH  063%=      5-min Rain = 0
KCH1 150138Z 14005KT 08/02 A3021 RMK A01 T00840017  RH  063%=      5-min Rain = 0
KCH1 150139Z 14007KT 08/02 A3021 RMK A01 T00840017  RH  063%=      5-min Rain = 0
KCH1 150140Z 14006KT 08/02 A3021 RMK A01 T00830017  RH  063%=      5-min Rain = 0
KCH1 150141Z 14007KT 08/02 A3021 RMK A01 T00830017  RH  063%=      5-min Rain = 0
KCH1 150142Z 14007KT 08/02 A3021 RMK A01 T00830017  RH  063%=      5-min Rain = 0
KCH1 150143Z 14006KT 08/02 A3021 RMK A01 T00830017  RH  063%=      5-min Rain = 0
KCH1 150144Z 14006KT 08/02 A3021 RMK A01 T00830017  RH  063%=      5-min Rain = 0
KCH1 150145Z 14006KT 08/02 A3021 RMK A01 T00830017  RH  063%=      5-min Rain = 0
KCH1 150146Z 14006KT 08/02 A3021 RMK A01 T00830017  RH  063%=      5-min Rain = 0
KCH1 150147Z 14007KT 08/02 A3021 RMK A01 T00830016  RH  063%=      5-min Rain = 0
KCH1 150148Z 14006KT 08/02 A3021 RMK A01 T00830016  RH  063%=      5-min Rain = 0
KCH1 150149Z 14007KT 08/02 A3021 RMK A01 T00830016  RH  063%=      5-min Rain = 0
KCH1 150150Z 14007KT 08/02 A3021 RMK A01 T00830016  RH  063%=      5-min Rain = 0
KCH1 150151Z 14008KT 08/02 A3021 RMK A01 T00830016  RH  063%=      5-min Rain = 0
KCH1 150152Z 14007KT 08/02 A3021 RMK A01 T00840016  RH  063%=      5-min Rain = 0
KCH1 150153Z 14007KT 08/02 A3021 RMK A01 T00830016  RH  063%=      5-min Rain = 0
KCH1 150154Z 14007KT 08/02 A3022 RMK A01 T00830016  RH  063%=      5-min Rain = 0
KCH1 150155Z 14007KT 08/02 A3022 RMK A01 T00820016  RH  063%=      5-min Rain = 0
KCH1 150156Z 14007KT 08/02 A3022 RMK A01 T00810016  RH  064%=      5-min Rain = 0
KCH1 150157Z 14009KT 08/02 A3022 RMK A01 T00810016  RH  064%=      5-min Rain = 0
KCH1 150158Z 15008KT 08/02 A3022 RMK A01 T00810015  RH  063%=      5-min Rain = 0
KCH1 150159Z 14008KT 08/02 A3022 RMK A01 T00810015  RH  063%=      5-min Rain = 0
KCH1 150200Z 14007KT 08/02 A3022 RMK A01 T00810015  RH  063%=      5-min Rain = 0
KCH1 150201Z 14009KT 08/02 A3022 RMK A01 T00820015  RH  063%=      5-min Rain = 0
KCH1 150202Z 14008KT 08/02 A3022 RMK A01 T00810015  RH  063%=      5-min Rain = 0
KCH1 150203Z 15008KT 08/02 A3022 RMK A01 T00820016  RH  063%=      5-min Rain = 0
KCH1 150204Z 15007KT 08/02 A3022 RMK A01 T00810015  RH  063%=      5-min Rain = 0
KCH1 150205Z 14007KT 08/02 A3022 RMK A01 T00810016  RH  063%=      5-min Rain = 0
KCH1 150206Z 14008KT 08/02 A3022 RMK A01 T00810016  RH  064%=      5-min Rain = 0
KCH1 150207Z 15009KT 08/02 A3022 RMK A01 T00810015  RH  063%=      5-min Rain = 0
KCH1 150208Z 15009KT 08/02 A3022 RMK A01 T00820015  RH  063%=      5-min Rain = 0
KCH1 150209Z 15008KT 08/02 A3022 RMK A01 T00820015  RH  063%=      5-min Rain = 0
KCH1 150210Z 14007KT 08/02 A3022 RMK A01 T00820016  RH  063%=      5-min Rain = 0
KCH1 150211Z 14007KT 08/02 A3022 RMK A01 T00810015  RH  063%=      5-min Rain = 0
KCH1 150212Z 15008KT 08/02 A3022 RMK A01 T00810015  RH  063%=      5-min Rain = 0
KCH1 150213Z 14007KT 08/02 A3023 RMK A01 T00810015  RH  063%=      5-min Rain = 0
KCH1 150214Z 14008KT 08/02 A3023 RMK A01 T00810016  RH  063%=      5-min Rain = 0
KCH1 150215Z 14007KT 08/02 A3023 RMK A01 T00810016  RH  063%=      5-min Rain = 0
KCH1 150216Z 14008KT 08/02 A3023 RMK A01 T00810015  RH  063%=      5-min Rain = 0
KCH1 150217Z 13007KT 08/02 A3023 RMK A01 T00810016  RH  063%=      5-min Rain = 0
KCH1 150218Z 14007KT 08/02 A3023 RMK A01 T00800015  RH  064%=      5-min Rain = 0
KCH1 150219Z 14008KT 08/02 A3023 RMK A01 T00800015  RH  064%=      5-min Rain = 0
KCH1 150220Z 14007KT 08/02 A3023 RMK A01 T00810015  RH  063%=      5-min Rain = 0
KCH1 150221Z 14007KT 08/02 A3023 RMK A01 T00800016  RH  064%=      5-min Rain = 0
KCH1 150222Z 14007KT 08/02 A3023 RMK A01 T00790015  RH  064%=      5-min Rain = 0
KCH1 150223Z 14008KT 08/02 A3023 RMK A01 T00790016  RH  064%=      5-min Rain = 0
KCH1 150224Z 13008KT 08/02 A3023 RMK A01 T00780015  RH  064%=      5-min Rain = 0
KCH1 150225Z 14007KT 08/02 A3023 RMK A01 T00780016  RH  065%=      5-min Rain = 0
KCH1 150226Z 14008KT 08/02 A3023 RMK A01 T00780016  RH  065%=      5-min Rain = 0
KCH1 150227Z 14007KT 08/02 A3023 RMK A01 T00780015  RH  064%=      5-min Rain = 0
KCH1 150228Z 14008KT 08/02 A3023 RMK A01 T00790016  RH  065%=      5-min Rain = 0
KCH1 150229Z 14007KT 08/02 A3023 RMK A01 T00780016  RH  065%=      5-min Rain = 0
KCH1 150230Z 14008KT 08/02 A3023 RMK A01 T00770016  RH  065%=      5-min Rain = 0
KCH1 150231Z 14008KT 08/02 A3023 RMK A01 T00770016  RH  065%=      5-min Rain = 0
KCH1 150232Z 14007KT 08/02 A3023 RMK A01 T00770016  RH  065%=      5-min Rain = 0
KCH1 150233Z 14008KT 08/02 A3023 RMK A01 T00760016  RH  066%=      5-min Rain = 0
KCH1 150234Z 15008KT 08/02 A3023 RMK A01 T00760016  RH  066%=      5-min Rain = 0
KCH1 150235Z 15008KT 08/02 A3023 RMK A01 T00760016  RH  066%=      5-min Rain = 0
KCH1 150236Z 14008KT 08/02 A3023 RMK A01 T00760016  RH  066%=      5-min Rain = 0
KCH1 150237Z 14008KT 08/02 A3023 RMK A01 T00750016  RH  066%=      5-min Rain = 0
KCH1 150238Z 14009KT 08/02 A3023 RMK A01 T00750017  RH  066%=      5-min Rain = 0
KCH1 150239Z 14008KT 08/02 A3023 RMK A01 T00750017  RH  067%=      5-min Rain = 0
KCH1 150240Z 14008KT 08/02 A3023 RMK A01 T00750017  RH  067%=      5-min Rain = 0
KCH1 150241Z 14008KT 08/02 A3023 RMK A01 T00750017  RH  067%=      5-min Rain = 0
KCH1 150242Z 14008KT 07/02 A3023 RMK A01 T00740017  RH  067%=      5-min Rain = 0
KCH1 150243Z 14007KT 07/02 A3023 RMK A01 T00740017  RH  067%=      5-min Rain = 0
KCH1 150244Z 14008KT 07/02 A3023 RMK A01 T00740017  RH  067%=      5-min Rain = 0
KCH1 150245Z 14008KT 07/02 A3023 RMK A01 T00730017  RH  067%=      5-min Rain = 0
KCH1 150246Z 14008KT 07/02 A3023 RMK A01 T00730017  RH  068%=      5-min Rain = 0
KCH1 150247Z 14007KT 07/02 A3023 RMK A01 T00730017  RH  068%=      5-min Rain = 0
KCH1 150248Z 13007KT 07/02 A3023 RMK A01 T00730017  RH  067%=      5-min Rain = 0
KCH1 150249Z 14008KT 07/02 A3023 RMK A01 T00730017  RH  068%=      5-min Rain = 0
KCH1 150250Z 14008KT 07/02 A3023 RMK A01 T00730017  RH  068%=      5-min Rain = 0
KCH1 150251Z 14007KT 07/02 A3024 RMK A01 T00730017  RH  068%=      5-min Rain = 0
KCH1 150252Z 14006KT 07/02 A3024 RMK A01 T00720017  RH  068%=      5-min Rain = 0
KCH1 150253Z 14007KT 07/02 A3024 RMK A01 T00720017  RH  068%=      5-min Rain = 0
KCH1 150254Z 14007KT 07/02 A3024 RMK A01 T00710018  RH  069%=      5-min Rain = 0
KCH1 150255Z 14007KT 07/02 A3024 RMK A01 T00710018  RH  069%=      5-min Rain = 0
KCH1 150256Z 14008KT 07/02 A3024 RMK A01 T00700017  RH  069%=      5-min Rain = 0
KCH1 150257Z 14007KT 07/02 A3024 RMK A01 T00710017  RH  069%=      5-min Rain = 0
KCH1 150258Z 14007KT 07/02 A3023 RMK A01 T00710017  RH  069%=      5-min Rain = 0
KCH1 150259Z 14008KT 07/02 A3023 RMK A01 T00710018  RH  069%=      5-min Rain = 0
KCH1 150300Z 14007KT 07/02 A3023 RMK A01 T00700018  RH  069%=      5-min Rain = 0
KCH1 150301Z 14008KT 07/02 A3023 RMK A01 T00690018  RH  070%=      5-min Rain = 0
KCH1 150302Z 14008KT 07/02 A3023 RMK A01 T00690018  RH  070%=      5-min Rain = 0
KCH1 150303Z 14008KT 07/02 A3023 RMK A01 T00690018  RH  070%=      5-min Rain = 0
KCH1 150304Z 14007KT 07/02 A3023 RMK A01 T00690018  RH  070%=      5-min Rain = 0
KCH1 150305Z 13008KT 07/02 A3023 RMK A01 T00690018  RH  070%=      5-min Rain = 0
KCH1 150306Z 14007KT 07/02 A3023 RMK A01 T00690018  RH  070%=      5-min Rain = 0
KCH1 150307Z 14008KT 07/02 A3023 RMK A01 T00680018  RH  070%=      5-min Rain = 0
KCH1 150308Z 14007KT 07/02 A3023 RMK A01 T00680018  RH  071%=      5-min Rain = 0
KCH1 150309Z 14007KT 07/02 A3023 RMK A01 T00680018  RH  071%=      5-min Rain = 0
KCH1 150310Z 14007KT 07/02 A3023 RMK A01 T00670018  RH  071%=      5-min Rain = 0
KCH1 150311Z 14008KT 07/02 A3023 RMK A01 T00670018  RH  071%=      5-min Rain = 0
KCH1 150312Z 14007KT 07/02 A3023 RMK A01 T00670018  RH  071%=      5-min Rain = 0
KCH1 150313Z 14007KT 07/02 A3023 RMK A01 T00660018  RH  071%=      5-min Rain = 0
KCH1 150314Z 14009KT 07/02 A3023 RMK A01 T00660018  RH  072%=      5-min Rain = 0
KCH1 150315Z 14008KT 07/02 A3023 RMK A01 T00670019  RH  071%=      5-min Rain = 0
KCH1 150316Z 14009KT 07/02 A3023 RMK A01 T00680019  RH  071%=      5-min Rain = 0
KCH1 150317Z 14006KT 07/02 A3023 RMK A01 T00680019  RH  071%=      5-min Rain = 0
KCH1 150318Z 14008KT 07/02 A3023 RMK A01 T00670018  RH  071%=      5-min Rain = 0
KCH1 150319Z 14008KT 07/02 A3023 RMK A01 T00670019  RH  071%=      5-min Rain = 0
KCH1 150320Z 14009KT 07/02 A3023 RMK A01 T00660018  RH  071%=      5-min Rain = 0
KCH1 150321Z 14009KT 07/02 A3023 RMK A01 T00670018  RH  071%=      5-min Rain = 0
KCH1 150322Z 14009KT 07/02 A3023 RMK A01 T00670019  RH  071%=      5-min Rain = 0
KCH1 150323Z 14007KT 07/02 A3023 RMK A01 T00670019  RH  071%=      5-min Rain = 0
KCH1 150324Z 14008KT 07/02 A3023 RMK A01 T00660019  RH  071%=      5-min Rain = 0
KCH1 150325Z 14008KT 07/02 A3023 RMK A01 T00660018  RH  071%=      5-min Rain = 0
KCH1 150326Z 14007KT 07/02 A3023 RMK A01 T00660018  RH  071%=      5-min Rain = 0
KCH1 150327Z 14008KT 07/02 A3023 RMK A01 T00660018  RH  071%=      5-min Rain = 0
KCH1 150328Z 13008KT 07/02 A3023 RMK A01 T00660018  RH  071%=      5-min Rain = 0
KCH1 150329Z 14008KT 07/02 A3023 RMK A01 T00660018  RH  071%=      5-min Rain = 0
KCH1 150330Z 14007KT 07/02 A3023 RMK A01 T00660018  RH  071%=      5-min Rain = 0
KCH1 150331Z 14007KT 07/02 A3023 RMK A01 T00660018  RH  071%=      5-min Rain = 0
KCH1 150332Z 14008KT 07/02 A3023 RMK A01 T00660018  RH  072%=      5-min Rain = 0
KCH1 150333Z 13007KT 07/02 A3023 RMK A01 T00660018  RH  072%=      5-min Rain = 0
KCH1 150334Z 14007KT 07/02 A3023 RMK A01 T00660018  RH  072%=      5-min Rain = 0
KCH1 150335Z 13007KT 07/02 A3023 RMK A01 T00660018  RH  072%=      5-min Rain = 0
KCH1 150336Z 14006KT 07/02 A3023 RMK A01 T00660018  RH  072%=      5-min Rain = 0
KCH1 150337Z 14008KT 07/02 A3023 RMK A01 T00660018  RH  071%=      5-min Rain = 0
KCH1 150338Z 14007KT 07/02 A3023 RMK A01 T00660018  RH  071%=      5-min Rain = 0
KCH1 150339Z 14010KT 07/02 A3023 RMK A01 T00660018  RH  072%=      5-min Rain = 0
KCH1 150340Z 14008KT 07/02 A3023 RMK A01 T00660018  RH  071%=      5-min Rain = 0
KCH1 150341Z 14008KT 07/02 A3023 RMK A01 T00670018  RH  071%=      5-min Rain = 0
KCH1 150342Z 13008KT 07/02 A3023 RMK A01 T00670018  RH  071%=      5-min Rain = 0
KCH1 150343Z 14008KT 07/02 A3023 RMK A01 T00670018  RH  071%=      5-min Rain = 0
KCH1 150344Z 14007KT 07/02 A3023 RMK A01 T00670018  RH  071%=      5-min Rain = 0
KCH1 150345Z 14007KT 07/02 A3023 RMK A01 T00670018  RH  071%=      5-min Rain = 0
KCH1 150346Z 14008KT 07/02 A3023 RMK A01 T00670018  RH  071%=      5-min Rain = 0
KCH1 150347Z 14009KT 07/02 A3023 RMK A01 T00670018  RH  071%=      5-min Rain = 0
KCH1 150348Z 14008KT 07/02 A3023 RMK A01 T00670017  RH  071%=      5-min Rain = 0
KCH1 150349Z 14009KT 07/02 A3023 RMK A01 T00680017  RH  070%=      5-min Rain = 0
KCH1 150350Z 14008KT 07/02 A3023 RMK A01 T00680018  RH  070%=      5-min Rain = 0
KCH1 150351Z 14010KT 07/02 A3023 RMK A01 T00680018  RH  070%=      5-min Rain = 0
KCH1 150352Z 14009KT 07/02 A3023 RMK A01 T00680017  RH  070%=      5-min Rain = 0
KCH1 150353Z 14008KT 07/02 A3023 RMK A01 T00680017  RH  070%=      5-min Rain = 0
KCH1 150354Z 14008KT 07/02 A3023 RMK A01 T00680017  RH  070%=      5-min Rain = 0
KCH1 150355Z 14010KT 07/02 A3023 RMK A01 T00670017  RH  070%=      5-min Rain = 0
KCH1 150356Z 15008KT 07/02 A3023 RMK A01 T00680017  RH  070%=      5-min Rain = 0
KCH1 150357Z 14007KT 07/02 A3023 RMK A01 T00680017  RH  070%=      5-min Rain = 0
KCH1 150358Z 14007KT 07/02 A3023 RMK A01 T00680017  RH  070%=      5-min Rain = 0
KCH1 150359Z 14008KT 07/02 A3023 RMK A01 T00670017  RH  071%=      5-min Rain = 0
KCH1 150400Z 14008KT 07/02 A3023 RMK A01 T00660017  RH  071%=      5-min Rain = 0
KCH1 150401Z 15007KT 07/02 A3023 RMK A01 T00660017  RH  071%=      5-min Rain = 0
KCH1 150402Z 15007KT 07/02 A3023 RMK A01 T00660017  RH  071%=      5-min Rain = 0
KCH1 150403Z 14006KT 07/02 A3023 RMK A01 T00650016  RH  071%=      5-min Rain = 0
KCH1 150404Z 15009KT 07/02 A3023 RMK A01 T00660016  RH  071%=      5-min Rain = 0
KCH1 150405Z 14008KT 07/02 A3023 RMK A01 T00670016  RH  070%=      5-min Rain = 0
KCH1 150406Z 14007KT 07/02 A3023 RMK A01 T00670016  RH  070%=      5-min Rain = 0
KCH1 150407Z 15007KT 07/02 A3023 RMK A01 T00680016  RH  070%=      5-min Rain = 0
KCH1 150408Z 14010KT 07/02 A3023 RMK A01 T00680016  RH  070%=      5-min Rain = 0
KCH1 150409Z 15009KT 07/02 A3023 RMK A01 T00670016  RH  070%=      5-min Rain = 0
KCH1 150410Z 15008KT 07/02 A3023 RMK A01 T00690016  RH  069%=      5-min Rain = 0
KCH1 150411Z 15009KT 07/02 A3023 RMK A01 T00690016  RH  069%=      5-min Rain = 0
KCH1 150412Z 15011KT 07/02 A3023 RMK A01 T00690016  RH  069%=      5-min Rain = 0
KCH1 150413Z 15011KT 07/02 A3023 RMK A01 T00690016  RH  069%=      5-min Rain = 0
KCH1 150414Z 15011KT 07/02 A3023 RMK A01 T00690016  RH  069%=      5-min Rain = 0
KCH1 150415Z 15009KT 07/02 A3023 RMK A01 T00690017  RH  069%=      5-min Rain = 0
KCH1 150416Z 15010KT 07/02 A3023 RMK A01 T00680017  RH  070%=      5-min Rain = 0
KCH1 150417Z 15008KT 07/02 A3023 RMK A01 T00670017  RH  070%=      5-min Rain = 0
KCH1 150418Z 15009KT 07/02 A3023 RMK A01 T00660017  RH  071%=      5-min Rain = 0
KCH1 150419Z 15010KT 07/02 A3023 RMK A01 T00650017  RH  071%=      5-min Rain = 0
KCH1 150420Z 15009KT 07/02 A3023 RMK A01 T00660018  RH  071%=      5-min Rain = 0
KCH1 150421Z 15011KT 07/02 A3023 RMK A01 T00650017  RH  071%=      5-min Rain = 0
KCH1 150422Z 15009KT 07/02 A3023 RMK A01 T00650017  RH  071%=      5-min Rain = 0
KCH1 150423Z 15008KT 07/02 A3023 RMK A01 T00650017  RH  072%=      5-min Rain = 0
KCH1 150424Z 15008KT 06/02 A3023 RMK A01 T00640017  RH  072%=      5-min Rain = 0
KCH1 150425Z 15008KT 06/02 A3023 RMK A01 T00640017  RH  072%=      5-min Rain = 0
KCH1 150426Z 15009KT 06/02 A3023 RMK A01 T00640017  RH  072%=      5-min Rain = 0
KCH1 150427Z 15009KT 06/02 A3023 RMK A01 T00630017  RH  072%=      5-min Rain = 0
KCH1 150428Z 15008KT 06/02 A3023 RMK A01 T00630017  RH  072%=      5-min Rain = 0
KCH1 150429Z 15009KT 06/02 A3023 RMK A01 T00630017  RH  072%=      5-min Rain = 0
KCH1 150430Z 15008KT 06/02 A3023 RMK A01 T00630017  RH  072%=      5-min Rain = 0
KCH1 150431Z 15007KT 06/02 A3023 RMK A01 T00630016  RH  072%=      5-min Rain = 0
KCH1 150432Z 15007KT 06/02 A3023 RMK A01 T00620016  RH  072%=      5-min Rain = 0
KCH1 150433Z 15007KT 06/02 A3023 RMK A01 T00620016  RH  072%=      5-min Rain = 0
KCH1 150434Z 15006KT 06/02 A3023 RMK A01 T00610016  RH  073%=      5-min Rain = 0
KCH1 150435Z 15006KT 06/02 A3023 RMK A01 T00610016  RH  073%=      5-min Rain = 0
KCH1 150436Z 16006KT 06/02 A3023 RMK A01 T00610016  RH  073%=      5-min Rain = 0
KCH1 150437Z 16007KT 06/02 A3023 RMK A01 T00600016  RH  073%=      5-min Rain = 0
KCH1 150438Z 16006KT 06/02 A3023 RMK A01 T00600015  RH  073%=      5-min Rain = 0
KCH1 150439Z 16008KT 06/02 A3023 RMK A01 T00600015  RH  073%=      5-min Rain = 0
KCH1 150440Z 16005KT 06/02 A3023 RMK A01 T00600015  RH  073%=      5-min Rain = 0
KCH1 150441Z 15007KT 06/02 A3023 RMK A01 T00600015  RH  073%=      5-min Rain = 0
KCH1 150442Z 16007KT 06/02 A3023 RMK A01 T00600015  RH  073%=      5-min Rain = 0
KCH1 150443Z 14006KT 06/02 A3023 RMK A01 T00610015  RH  073%=      5-min Rain = 0
KCH1 150444Z 14006KT 06/02 A3023 RMK A01 T00600015  RH  073%=      5-min Rain = 0
KCH1 150445Z 15007KT 06/02 A3023 RMK A01 T00590015  RH  073%=      5-min Rain = 0
KCH1 150446Z 15006KT 06/02 A3023 RMK A01 T00590015  RH  073%=      5-min Rain = 0
KCH1 150447Z 15006KT 06/02 A3023 RMK A01 T00580015  RH  074%=      5-min Rain = 0
KCH1 150448Z 15006KT 06/02 A3023 RMK A01 T00580015  RH  074%=      5-min Rain = 0
KCH1 150449Z 14007KT 06/01 A3023 RMK A01 T00570014  RH  074%=      5-min Rain = 0
KCH1 150450Z 15006KT 06/02 A3023 RMK A01 T00570015  RH  074%=      5-min Rain = 0
KCH1 150451Z 15006KT 06/02 A3023 RMK A01 T00570015  RH  074%=      5-min Rain = 0
KCH1 150452Z 15008KT 06/02 A3023 RMK A01 T00570015  RH  074%=      5-min Rain = 0
KCH1 150453Z 15007KT 06/01 A3022 RMK A01 T00570014  RH  074%=      5-min Rain = 0
KCH1 150454Z 15007KT 06/01 A3022 RMK A01 T00570014  RH  074%=      5-min Rain = 0
KCH1 150455Z 15005KT 06/01 A3023 RMK A01 T00570014  RH  074%=      5-min Rain = 0
KCH1 150456Z 15004KT 06/01 A3023 RMK A01 T00560014  RH  074%=      5-min Rain = 0
KCH1 150457Z 16006KT 06/01 A3023 RMK A01 T00550013  RH  075%=      5-min Rain = 0
KCH1 150458Z 16005KT 06/01 A3023 RMK A01 T00550013  RH  075%=      5-min Rain = 0
KCH1 150459Z 17004KT 05/01 A3023 RMK A01 T00540013  RH  075%=      5-min Rain = 0
KCH1 150500Z 16006KT 05/01 A3023 RMK A01 T00540013  RH  075%=      5-min Rain = 0
KCH1 150501Z 15005KT 05/01 A3023 RMK A01 T00540013  RH  075%=      5-min Rain = 0
KCH1 150502Z 16005KT 05/01 A3023 RMK A01 T00540012  RH  074%=      5-min Rain = 0
KCH1 150503Z 15005KT 06/01 A3022 RMK A01 T00550012  RH  074%=      5-min Rain = 0
KCH1 150504Z 16004KT 06/01 A3022 RMK A01 T00550013  RH  074%=      5-min Rain = 0
KCH1 150505Z 15004KT 05/01 A3022 RMK A01 T00540012  RH  074%=      5-min Rain = 0
KCH1 150506Z 15004KT 05/01 A3023 RMK A01 T00540012  RH  074%=      5-min Rain = 0
KCH1 150507Z 16004KT 05/01 A3023 RMK A01 T00530012  RH  075%=      5-min Rain = 0
KCH1 150508Z 16004KT 05/01 A3023 RMK A01 T00530011  RH  075%=      5-min Rain = 0
KCH1 150509Z 16003KT 05/01 A3023 RMK A01 T00530012  RH  075%=      5-min Rain = 0
KCH1 150510Z 16004KT 05/01 A3023 RMK A01 T00530011  RH  074%=      5-min Rain = 0
KCH1 150511Z 15004KT 05/01 A3023 RMK A01 T00530011  RH  074%=      5-min Rain = 0
KCH1 150512Z 16004KT 05/01 A3023 RMK A01 T00520011  RH  075%=      5-min Rain = 0
KCH1 150513Z 16003KT 05/01 A3023 RMK A01 T00520011  RH  075%=      5-min Rain = 0
KCH1 150514Z 17004KT 05/01 A3023 RMK A01 T00520011  RH  075%=      5-min Rain = 0
KCH1 150515Z 16004KT 05/01 A3023 RMK A01 T00520011  RH  075%=      5-min Rain = 0
KCH1 150516Z 17004KT 05/01 A3023 RMK A01 T00520010  RH  075%=      5-min Rain = 0
KCH1 150517Z 16004KT 05/01 A3023 RMK A01 T00520010  RH  075%=      5-min Rain = 0
KCH1 150518Z 17005KT 05/01 A3023 RMK A01 T00520010  RH  075%=      5-min Rain = 0
KCH1 150519Z 16005KT 05/01 A3023 RMK A01 T00510010  RH  075%=      5-min Rain = 0
KCH1 150520Z 17005KT 05/01 A3023 RMK A01 T00500010  RH  075%=      5-min Rain = 0
KCH1 150521Z 16006KT 05/01 A3023 RMK A01 T00510010  RH  075%=      5-min Rain = 0
KCH1 150522Z 16005KT 05/01 A3022 RMK A01 T00500009  RH  075%=      5-min Rain = 0
KCH1 150523Z 17006KT 05/01 A3022 RMK A01 T00500009  RH  075%=      5-min Rain = 0
KCH1 150524Z 17006KT 05/01 A3022 RMK A01 T00510010  RH  074%=      5-min Rain = 0
KCH1 150525Z 16006KT 05/01 A3023 RMK A01 T00520009  RH  074%=      5-min Rain = 0
KCH1 150526Z 17004KT 05/01 A3023 RMK A01 T00520009  RH  074%=      5-min Rain = 0
KCH1 150527Z 17004KT 05/01 A3023 RMK A01 T00510009  RH  074%=      5-min Rain = 0
KCH1 150528Z 16004KT 05/01 A3022 RMK A01 T00510009  RH  074%=      5-min Rain = 0
KCH1 150529Z 16004KT 05/01 A3022 RMK A01 T00500008  RH  074%=      5-min Rain = 0
KCH1 150530Z 16005KT 05/01 A3022 RMK A01 T00500008  RH  074%=      5-min Rain = 0
KCH1 150531Z 17005KT 05/01 A3022 RMK A01 T00500008  RH  074%=      5-min Rain = 0
KCH1 150532Z 16006KT 05/01 A3022 RMK A01 T00500008  RH  074%=      5-min Rain = 0
KCH1 150533Z 17004KT 05/01 A3022 RMK A01 T00500008  RH  074%=      5-min Rain = 0
KCH1 150534Z 17005KT 05/01 A3022 RMK A01 T00500008  RH  074%=      5-min Rain = 0
KCH1 150535Z 17005KT 05/01 A3022 RMK A01 T00500007  RH  074%=      5-min Rain = 0
KCH1 150536Z 17004KT 05/01 A3022 RMK A01 T00510007  RH  073%=      5-min Rain = 0
KCH1 150537Z 17005KT 05/01 A3022 RMK A01 T00510007  RH  074%=      5-min Rain = 0
KCH1 150538Z 18007KT 05/01 A3022 RMK A01 T00500007  RH  073%=      5-min Rain = 0
KCH1 150539Z 16006KT 05/01 A3022 RMK A01 T00510007  RH  073%=      5-min Rain = 0
KCH1 150540Z 17005KT 05/01 A3022 RMK A01 T00520007  RH  072%=      5-min Rain = 0
KCH1 150541Z 16005KT 05/01 A3022 RMK A01 T00520007  RH  072%=      5-min Rain = 0
KCH1 150542Z 17005KT 05/01 A3022 RMK A01 T00520007  RH  073%=      5-min Rain = 0
KCH1 150543Z 17005KT 05/01 A3022 RMK A01 T00510007  RH  073%=      5-min Rain = 0
KCH1 150544Z 17006KT 05/01 A3022 RMK A01 T00500006  RH  073%=      5-min Rain = 0
KCH1 150545Z 17006KT 05/01 A3022 RMK A01 T00500007  RH  073%=      5-min Rain = 0
KCH1 150546Z 17006KT 05/01 A3022 RMK A01 T00500007  RH  073%=      5-min Rain = 0
KCH1 150547Z 18007KT 05/01 A3023 RMK A01 T00500007  RH  073%=      5-min Rain = 0
KCH1 150548Z 17006KT 05/01 A3023 RMK A01 T00500007  RH  073%=      5-min Rain = 0
KCH1 150549Z 18007KT 05/01 A3023 RMK A01 T00510007  RH  073%=      5-min Rain = 0
KCH1 150550Z 17007KT 05/01 A3023 RMK A01 T00510007  RH  073%=      5-min Rain = 0
KCH1 150551Z 17006KT 05/01 A3022 RMK A01 T00510006  RH  073%=      5-min Rain = 0
KCH1 150552Z 17006KT 05/01 A3022 RMK A01 T00510007  RH  073%=      5-min Rain = 0
KCH1 150553Z 17006KT 05/01 A3022 RMK A01 T00510006  RH  073%=      5-min Rain = 0
KCH1 150554Z 17005KT 05/01 A3022 RMK A01 T00500006  RH  073%=      5-min Rain = 0
KCH1 150555Z 16006KT 05/01 A3022 RMK A01 T00500006  RH  073%=      5-min Rain = 0
KCH1 150556Z 16005KT 05/01 A3022 RMK A01 T00500006  RH  073%=      5-min Rain = 0
KCH1 150557Z 16005KT 05/01 A3022 RMK A01 T00490006  RH  074%=      5-min Rain = 0
KCH1 150558Z 17005KT 05/01 A3022 RMK A01 T00490006  RH  074%=      5-min Rain = 0
KCH1 150559Z 17005KT 05/01 A3022 RMK A01 T00480006  RH  074%=      5-min Rain = 0

Page generated in 0.1961 seconds.